Wetterdaten: Sonntag, 19.03.2023
Datum Zeit Temp. Aussen Temp. o. S. Temp +5cm Feuchte Auss Luftdruck Regen Sonnenschein Regendauer Solar Windben Empfang
19.03.2023 00:00 11,9 C 11,1 C 6,7 C 81 % 1012,1 hPa 0,0 l/m 0 min 2 min 0 W/m 12,9 km/h (3 Bft) 97,87 %
19.03.2023 00:02 11,9 C 11,1 C 6,7 C 82 % 1012,2 hPa 0,0 l/m 0 min 2 min 0 W/m 16,1 km/h (3 Bft) 97,44 %
19.03.2023 00:04 11,9 C 10,6 C 6,7 C 83 % 1012,2 hPa 0,2 l/m 0 min 2 min 0 W/m 12,9 km/h (3 Bft) 93,48 %
19.03.2023 00:07 11,8 C 10,6 C 6,1 C 84 % 1012,2 hPa 0,0 l/m 0 min 3 min 0 W/m 19,3 km/h (3 Bft) 94,81 %
19.03.2023 00:10 11,8 C 10,6 C 5,6 C 85 % 1012,2 hPa 0,2 l/m 0 min 3 min 0 W/m 16,1 km/h (3 Bft) 95,71 %
19.03.2023 00:12 11,8 C 10,0 C 5,6 C 85 % 1012,1 hPa 0,2 l/m 0 min 2 min 0 W/m 16,1 km/h (3 Bft) 95,83 %
19.03.2023 00:14 11,7 C 10,0 C 5,6 C 85 % 1012,1 hPa 0,2 l/m 0 min 2 min 0 W/m 16,1 km/h (3 Bft) 95,74 %
19.03.2023 00:16 11,7 C 10,0 C 5,6 C 86 % 1012,0 hPa 0,4 l/m 0 min 2 min 0 W/m 22,5 km/h (4 Bft) 95,74 %
19.03.2023 00:18 11,7 C 10,0 C 5,6 C 86 % 1012,0 hPa 0,2 l/m 0 min 2 min 0 W/m 22,5 km/h (4 Bft) 93,75 %
19.03.2023 00:20 11,6 C 10,0 C 5,6 C 86 % 1012,0 hPa 0,2 l/m 0 min 2 min 0 W/m 16,1 km/h (3 Bft) 97,87 %
19.03.2023 00:22 11,6 C 10,0 C 5,6 C 87 % 1011,8 hPa 0,0 l/m 0 min 2 min 0 W/m 12,9 km/h (3 Bft) 94,74 %
19.03.2023 00:24 11,6 C 10,0 C 5,6 C 87 % 1011,6 hPa 0,2 l/m 0 min 2 min 0 W/m 3,2 km/h (1 Bft) 97,83 %
19.03.2023 00:26 11,6 C 10,0 C 5,6 C 87 % 1011,5 hPa 0,0 l/m 0 min 2 min 0 W/m 6,4 km/h (2 Bft) 95,74 %
19.03.2023 00:28 11,6 C 10,0 C 5,6 C 87 % 1011,5 hPa 0,0 l/m 0 min 2 min 0 W/m 12,9 km/h (3 Bft) 93,62 %
19.03.2023 00:30 11,6 C 10,0 C 5,6 C 87 % 1011,5 hPa 0,0 l/m 0 min 2 min 0 W/m 9,7 km/h (2 Bft) 95,74 %
19.03.2023 00:32 11,6 C 10,0 C 5,6 C 87 % 1011,6 hPa 0,0 l/m 0 min 0 min 0 W/m 3,2 km/h (1 Bft) 97,87 %
19.03.2023 00:34 11,6 C 10,0 C 5,6 C 87 % 1011,7 hPa 0,0 l/m 0 min 0 min 0 W/m 3,2 km/h (1 Bft) 95,74 %
19.03.2023 00:36 11,6 C 10,0 C 5,6 C 87 % 1011,7 hPa 0,0 l/m 0 min 0 min 0 W/m 6,4 km/h (2 Bft) 95,65 %
19.03.2023 00:38 11,6 C 10,0 C 5,6 C 87 % 1011,8 hPa 0,0 l/m 0 min 2 min 0 W/m 9,7 km/h (2 Bft) 97,87 %
19.03.2023 00:40 11,6 C 10,0 C 5,6 C 88 % 1011,8 hPa 0,0 l/m 0 min 2 min 0 W/m 16,1 km/h (3 Bft) 100,00 %
19.03.2023 00:42 11,6 C 10,6 C 5,6 C 88 % 1011,9 hPa 0,0 l/m 0 min 2 min 0 W/m 16,1 km/h (3 Bft) 100,00 %
19.03.2023 00:44 11,6 C 10,6 C 5,6 C 88 % 1011,9 hPa 0,0 l/m 0 min 2 min 0 W/m 12,9 km/h (3 Bft) 100,00 %
19.03.2023 00:46 11,6 C 10,6 C 5,6 C 88 % 1011,9 hPa 0,0 l/m 0 min 0 min 0 W/m 6,4 km/h (2 Bft) 97,87 %
19.03.2023 00:48 11,6 C 10,6 C 5,6 C 88 % 1011,9 hPa 0,0 l/m 0 min 0 min 0 W/m 9,7 km/h (2 Bft) 100,00 %
19.03.2023 00:50 11,6 C 10,6 C 5,6 C 88 % 1011,9 hPa 0,0 l/m 0 min 0 min 0 W/m 9,7 km/h (2 Bft) 100,00 %
19.03.2023 00:52 11,6 C 10,6 C 5,6 C 88 % 1012,0 hPa 0,0 l/m 0 min 0 min 0 W/m 6,4 km/h (2 Bft) 97,87 %
19.03.2023 00:54 11,5 C 10,0 C 5,6 C 88 % 1012,0 hPa 0,0 l/m 0 min 0 min 0 W/m 3,2 km/h (1 Bft) 100,00 %
19.03.2023 00:56 11,5 C 10,0 C 5,6 C 88 % 1012,0 hPa 0,0 l/m 0 min 0 min 0 W/m 3,2 km/h (1 Bft) 100,00 %
19.03.2023 00:58 11,4 C 10,0 C 5,6 C 88 % 1012,1 hPa 0,0 l/m 0 min 0 min 0 W/m 3,2 km/h (1 Bft) 100,00 %
19.03.2023 01:00 11,4 C 10,0 C 5,6 C 89 % 1012,1 hPa 0,0 l/m 0 min 0 min 0 W/m 6,4 km/h (2 Bft) 100,00 %
19.03.2023 01:02 11,4 C 10,0 C 5,6 C 89 % 1012,2 hPa 0,0 l/m 0 min 0 min 0 W/m 6,4 km/h (2 Bft) 100,00 %
19.03.2023 01:04 11,3 C 10,0 C 5,6 C 89 % 1012,2 hPa 0,0 l/m 0 min 0 min 0 W/m 3,2 km/h (1 Bft) 100,00 %
19.03.2023 01:06 11,3 C 10,0 C 5,6 C 89 % 1012,1 hPa 0,0 l/m 0 min 0 min 0 W/m 6,4 km/h (2 Bft) 100,00 %
19.03.2023 01:08 11,3 C 10,0 C 5,6 C 89 % 1012,1 hPa 0,0 l/m 0 min 0 min 0 W/m 6,4 km/h (2 Bft) 100,00 %
19.03.2023 01:10 11,2 C 10,0 C 5,6 C 89 % 1012,1 hPa 0,0 l/m 0 min 0 min 0 W/m 6,4 km/h (2 Bft) 97,87 %
19.03.2023 01:12 11,2 C 10,0 C 5,6 C 89 % 1012,0 hPa 0,0 l/m 0 min 0 min 0 W/m 0,0 km/h (0 Bft) 95,74 %
19.03.2023 01:14 11,2 C 10,0 C 5,6 C 89 % 1012,0 hPa 0,0 l/m 0 min 0 min 0 W/m 3,2 km/h (1 Bft) 100,00 %
19.03.2023 01:16 11,2 C 10,0 C 5,6 C 89 % 1012,0 hPa 0,0 l/m 0 min 0 min 0 W/m 0,0 km/h (0 Bft) 95,74 %
19.03.2023 01:18 11,2 C 9,4 C 5,6 C 89 % 1012,0 hPa 0,0 l/m 0 min 2 min 0 W/m 0,0 km/h (0 Bft) 100,00 %
19.03.2023 01:20 11,2 C 9,4 C 5,6 C 89 % 1011,9 hPa 0,2 l/m 0 min 2 min 0 W/m 3,2 km/h (1 Bft) 100,00 %
19.03.2023 01:22 11,1 C 9,4 C 5,6 C 89 % 1011,9 hPa 0,0 l/m 0 min 2 min 0 W/m 0,0 km/h (0 Bft) 100,00 %
19.03.2023 01:24 11,1 C 9,4 C 5,6 C 90 % 1011,9 hPa 0,0 l/m 0 min 0 min 0 W/m 3,2 km/h (1 Bft) 100,00 %
19.03.2023 01:26 11,1 C 9,4 C 5,6 C 90 % 1012,0 hPa 0,0 l/m 0 min 0 min 0 W/m 6,4 km/h (2 Bft) 100,00 %
19.03.2023 01:28 11,1 C 9,4 C 5,6 C 90 % 1012,1 hPa 0,0 l/m 0 min 0 min 0 W/m 6,4 km/h (2 Bft) 100,00 %
19.03.2023 01:30 11,1 C 9,4 C 5,6 C 90 % 1012,1 hPa 0,0 l/m 0 min 0 min 0 W/m 3,2 km/h (1 Bft) 100,00 %
19.03.2023 01:32 11,0 C 9,4 C 5,6 C 90 % 1012,1 hPa 0,0 l/m 0 min 0 min 0 W/m 6,4 km/h (2 Bft) 100,00 %
19.03.2023 01:34 10,9 C 9,4 C 5,6 C 90 % 1012,1 hPa 0,0 l/m 0 min 0 min 0 W/m 6,4 km/h (2 Bft) 48,72 %
19.03.2023 01:36 10,9 C 9,4 C 5,6 C 90 % 1012,1 hPa 0,0 l/m 0 min 0 min 0 W/m 6,4 km/h (2 Bft) 100,00 %
19.03.2023 01:38 10,8 C 9,4 C 5,6 C 90 % 1012,0 hPa 0,0 l/m 0 min 0 min 0 W/m 3,2 km/h (1 Bft) 100,00 %
19.03.2023 01:40 10,8 C 9,4 C 5,6 C 91 % 1012,1 hPa 0,0 l/m 0 min 0 min 0 W/m 6,4 km/h (2 Bft) 100,00 %
19.03.2023 01:42 10,8 C 9,4 C 5,6 C 90 % 1012,0 hPa 0,0 l/m 0 min 0 min 0 W/m 6,4 km/h (2 Bft) 97,87 %
19.03.2023 01:44 10,7 C 9,4 C 5,6 C 91 % 1012,0 hPa 0,0 l/m 0 min 0 min 0 W/m 3,2 km/h (1 Bft) 97,87 %
19.03.2023 01:46 10,7 C 9,4 C 5,0 C 91 % 1012,0 hPa 0,0 l/m 0 min 0 min 0 W/m 3,2 km/h (1 Bft) 95,74 %
19.03.2023 01:48 10,7 C 8,9 C 5,0 C 91 % 1011,9 hPa 0,0 l/m 0 min 0 min 0 W/m 3,2 km/h (1 Bft) 95,74 %
19.03.2023 01:50 10,6 C 8,9 C 5,0 C 91 % 1012,0 hPa 0,0 l/m 0 min 0 min 0 W/m 6,4 km/h (2 Bft) 91,30 %
19.03.2023 01:52 10,6 C 8,9 C 5,0 C 91 % 1011,9 hPa 0,0 l/m 0 min 0 min 0 W/m 6,4 km/h (2 Bft) 97,87 %
19.03.2023 01:54 10,6 C 8,9 C 5,0 C 91 % 1011,9 hPa 0,0 l/m 0 min 0 min 0 W/m 6,4 km/h (2 Bft) 95,74 %
19.03.2023 01:56 10,5 C 8,9 C 5,0 C 91 % 1011,9 hPa 0,0 l/m 0 min 0 min 0 W/m 3,2 km/h (1 Bft) 93,62 %
19.03.2023 01:58 10,5 C 8,9 C 5,0 C 91 % 1012,0 hPa 0,0 l/m 0 min 0 min 0 W/m 3,2 km/h (1 Bft) 93,62 %
19.03.2023 02:00 10,4 C 8,9 C 5,0 C 91 % 1012,0 hPa 0,0 l/m 0 min 0 min 0 W/m 3,2 km/h (1 Bft) 91,49 %
19.03.2023 02:02 10,4 C 8,9 C 5,0 C 91 % 1011,9 hPa 0,0 l/m 0 min 0 min 0 W/m 3,2 km/h (1 Bft) 91,49 %
19.03.2023 02:04 10,4 C 8,9 C 5,0 C 91 % 1011,9 hPa 0,0 l/m 0 min 0 min 0 W/m 3,2 km/h (1 Bft) 93,62 %
19.03.2023 02:06 10,3 C 8,9 C 5,0 C 92 % 1011,9 hPa 0,0 l/m 0 min 0 min 0 W/m 6,4 km/h (2 Bft) 89,36 %
19.03.2023 02:08 10,3 C 8,9 C 5,0 C 92 % 1012,0 hPa 0,0 l/m 0 min 0 min 0 W/m 6,4 km/h (2 Bft) 91,49 %
19.03.2023 02:10 10,3 C 8,9 C 5,0 C 92 % 1012,0 hPa 0,0 l/m 0 min 0 min 0 W/m 6,4 km/h (2 Bft) 93,62 %
19.03.2023 02:12 10,2 C 8,9 C 5,0 C 92 % 1012,0 hPa 0,0 l/m 0 min 0 min 0 W/m 6,4 km/h (2 Bft) 94,29 %
19.03.2023 02:14 10,2 C 8,9 C 5,0 C 92 % 1012,0 hPa 0,0 l/m 0 min 0 min 0 W/m 6,4 km/h (2 Bft) 93,62 %
19.03.2023 02:16 10,2 C 8,9 C 5,0 C 92 % 1012,0 hPa 0,0 l/m 0 min 0 min 0 W/m 3,2 km/h (1 Bft) 93,62 %
19.03.2023 02:18 10,1 C 8,9 C 5,0 C 92 % 1011,9 hPa 0,0 l/m 0 min 0 min 0 W/m 6,4 km/h (2 Bft) 91,49 %
19.03.2023 02:20 10,1 C 8,9 C 5,0 C 92 % 1011,8 hPa 0,0 l/m 0 min 0 min 0 W/m 3,2 km/h (1 Bft) 91,49 %
19.03.2023 02:22 10,1 C 8,9 C 5,0 C 92 % 1011,8 hPa 0,0 l/m 0 min 0 min 0 W/m 6,4 km/h (2 Bft) 91,30 %
19.03.2023 02:24 10,1 C 8,9 C 5,0 C 92 % 1011,9 hPa 0,0 l/m 0 min 0 min 0 W/m 3,2 km/h (1 Bft) 95,74 %
19.03.2023 02:26 10,1 C 8,9 C 5,0 C 92 % 1011,9 hPa 0,0 l/m 0 min 0 min 0 W/m 6,4 km/h (2 Bft) 95,74 %
19.03.2023 02:28 10,0 C 8,9 C 5,0 C 92 % 1011,9 hPa 0,0 l/m 0 min 0 min 0 W/m 6,4 km/h (2 Bft) 95,74 %
19.03.2023 02:30 9,9 C 8,9 C 5,0 C 92 % 1012,0 hPa 0,0 l/m 0 min 0 min 0 W/m 6,4 km/h (2 Bft) 94,34 %
19.03.2023 02:32 9,9 C 8,9 C 5,0 C 93 % 1011,9 hPa 0,0 l/m 0 min 0 min 0 W/m 6,4 km/h (2 Bft) 95,83 %
19.03.2023 02:34 9,9 C 8,9 C 5,0 C 93 % 1011,9 hPa 0,0 l/m 0 min 0 min 0 W/m 6,4 km/h (2 Bft) 95,74 %
19.03.2023 02:36 9,9 C 8,9 C 5,0 C 93 % 1011,9 hPa 0,0 l/m 0 min 0 min 0 W/m 6,4 km/h (2 Bft) 95,65 %
19.03.2023 02:38 9,9 C 8,9 C 5,0 C 93 % 1011,9 hPa 0,0 l/m 0 min 0 min 0 W/m 3,2 km/h (1 Bft) 100,00 %
19.03.2023 02:40 9,9 C 8,9 C 5,0 C 93 % 1011,9 hPa 0,0 l/m 0 min 0 min 0 W/m 6,4 km/h (2 Bft) 97,87 %
19.03.2023 02:42 9,9 C 8,9 C 5,0 C 93 % 1011,9 hPa 0,0 l/m 0 min 0 min 0 W/m 6,4 km/h (2 Bft) 98,00 %
19.03.2023 02:44 9,8 C 8,9 C 5,0 C 93 % 1011,9 hPa 0,0 l/m 0 min 0 min 0 W/m 6,4 km/h (2 Bft) 100,00 %
19.03.2023 02:46 9,8 C 8,9 C 5,0 C 93 % 1011,9 hPa 0,0 l/m 0 min 0 min 0 W/m 6,4 km/h (2 Bft) 100,00 %
19.03.2023 02:48 9,8 C 8,9 C 5,0 C 93 % 1011,9 hPa 0,0 l/m 0 min 0 min 0 W/m 3,2 km/h (1 Bft) 97,83 %
19.03.2023 02:50 9,8 C 8,9 C 5,0 C 93 % 1011,9 hPa 0,0 l/m 0 min 0 min 0 W/m 6,4 km/h (2 Bft) 100,00 %
19.03.2023 02:52 9,8 C 8,9 C 5,0 C 93 % 1011,9 hPa 0,0 l/m 0 min 0 min 0 W/m 6,4 km/h (2 Bft) 100,00 %
19.03.2023 02:54 9,8 C 8,9 C 5,0 C 93 % 1011,9 hPa 0,0 l/m 0 min 0 min 0 W/m 6,4 km/h (2 Bft) 100,00 %
19.03.2023 02:56 9,8 C 8,9 C 5,0 C 94 % 1011,9 hPa 0,0 l/m 0 min 0 min 0 W/m 6,4 km/h (2 Bft) 100,00 %
19.03.2023 02:58 9,8 C 9,4 C 5,0 C 94 % 1011,9 hPa 0,0 l/m 0 min 0 min 0 W/m 6,4 km/h (2 Bft) 100,00 %
19.03.2023 03:00 9,8 C 9,4 C 5,0 C 94 % 1011,9 hPa 0,0 l/m 0 min 0 min 0 W/m 6,4 km/h (2 Bft) 100,00 %
19.03.2023 03:02 9,8 C 9,4 C 5,0 C 94 % 1011,9 hPa 0,0 l/m 0 min 0 min 0 W/m 3,2 km/h (1 Bft) 100,00 %
19.03.2023 03:04 9,8 C 9,4 C 5,0 C 94 % 1011,9 hPa 0,0 l/m 0 min 0 min 0 W/m 3,2 km/h (1 Bft) 100,00 %
19.03.2023 03:06 9,8 C 9,4 C 5,0 C 94 % 1011,9 hPa 0,0 l/m 0 min 0 min 0 W/m 3,2 km/h (1 Bft) 100,00 %
19.03.2023 03:08 9,8 C 9,4 C 5,6 C 94 % 1011,9 hPa 0,0 l/m 0 min 0 min 0 W/m 3,2 km/h (1 Bft) 100,00 %
19.03.2023 03:10 9,9 C 9,4 C 5,6 C 94 % 1011,9 hPa 0,0 l/m 0 min 0 min 0 W/m 12,9 km/h (3 Bft) 100,00 %
19.03.2023 03:12 9,9 C 9,4 C 5,6 C 94 % 1011,9 hPa 0,0 l/m 0 min 0 min 0 W/m 3,2 km/h (1 Bft) 100,00 %
19.03.2023 03:14 9,9 C 9,4 C 5,6 C 94 % 1011,9 hPa 0,0 l/m 0 min 0 min 0 W/m 3,2 km/h (1 Bft) 100,00 %
19.03.2023 03:16 9,9 C 9,4 C 5,0 C 94 % 1011,9 hPa 0,0 l/m 0 min 0 min 0 W/m 6,4 km/h (2 Bft) 100,00 %
19.03.2023 03:18 9,9 C 9,4 C 5,0 C 94 % 1011,9 hPa 0,0 l/m 0 min 0 min 0 W/m 12,9 km/h (3 Bft) 100,00 %
19.03.2023 03:20 9,9 C 9,4 C 5,0 C 94 % 1011,8 hPa 0,0 l/m 0 min 0 min 0 W/m 6,4 km/h (2 Bft) 100,00 %
19.03.2023 03:22 9,9 C 9,4 C 5,0 C 94 % 1011,8 hPa 0,0 l/m 0 min 0 min 0 W/m 6,4 km/h (2 Bft) 97,83 %
19.03.2023 03:24 9,9 C 9,4 C 5,0 C 94 % 1011,8 hPa 0,0 l/m 0 min 0 min 0 W/m 3,2 km/h (1 Bft) 100,00 %
19.03.2023 03:26 9,9 C 9,4 C 5,0 C 94 % 1011,8 hPa 0,0 l/m 0 min 0 min 0 W/m 6,4 km/h (2 Bft) 100,00 %
19.03.2023 03:28 9,9 C 9,4 C 5,0 C 94 % 1011,7 hPa 0,0 l/m 0 min 0 min 0 W/m 3,2 km/h (1 Bft) 100,00 %
19.03.2023 03:30 9,9 C 9,4 C 5,0 C 94 % 1011,7 hPa 0,0 l/m 0 min 0 min 0 W/m 3,2 km/h (1 Bft) 100,00 %
19.03.2023 03:32 9,8 C 9,4 C 5,0 C 94 % 1011,7 hPa 0,0 l/m 0 min 0 min 0 W/m 3,2 km/h (1 Bft) 100,00 %
19.03.2023 03:34 9,9 C 9,4 C 5,0 C 94 % 1011,7 hPa 0,0 l/m 0 min 0 min 0 W/m 6,4 km/h (2 Bft) 97,87 %
19.03.2023 03:36 9,8 C 9,4 C 5,0 C 94 % 1011,7 hPa 0,0 l/m 0 min 0 min 0 W/m 3,2 km/h (1 Bft) 100,00 %
19.03.2023 03:38 9,8 C 9,4 C 5,0 C 94 % 1011,7 hPa 0,0 l/m 0 min 0 min 0 W/m 6,4 km/h (2 Bft) 100,00 %
19.03.2023 03:40 9,8 C 9,4 C 5,0 C 94 % 1011,7 hPa 0,0 l/m 0 min 0 min 0 W/m 3,2 km/h (1 Bft) 97,83 %
19.03.2023 03:42 9,8 C 9,4 C 5,0 C 94 % 1011,6 hPa 0,0 l/m 0 min 0 min 0 W/m 6,4 km/h (2 Bft) 97,87 %
19.03.2023 03:44 9,8 C 9,4 C 5,0 C 94 % 1011,7 hPa 0,0 l/m 0 min 0 min 0 W/m 3,2 km/h (1 Bft) 98,00 %
19.03.2023 03:46 9,8 C 9,4 C 5,0 C 94 % 1011,6 hPa 0,0 l/m 0 min 0 min 0 W/m 6,4 km/h (2 Bft) 97,87 %
19.03.2023 03:48 9,8 C 9,4 C 5,0 C 94 % 1011,6 hPa 0,0 l/m 0 min 0 min 0 W/m 6,4 km/h (2 Bft) 97,87 %
19.03.2023 03:50 9,8 C 9,4 C 5,0 C 94 % 1011,7 hPa 0,0 l/m 0 min 0 min 0 W/m 3,2 km/h (1 Bft) 97,87 %
19.03.2023 03:52 9,8 C 9,4 C 5,0 C 94 % 1011,6 hPa 0,0 l/m 0 min 0 min 0 W/m 3,2 km/h (1 Bft) 95,65 %
19.03.2023 03:54 9,8 C 9,4 C 5,0 C 94 % 1011,7 hPa 0,0 l/m 0 min 0 min 0 W/m 6,4 km/h (2 Bft) 95,74 %
19.03.2023 03:56 9,8 C 9,4 C 5,0 C 94 % 1011,8 hPa 0,0 l/m 0 min 0 min 0 W/m 3,2 km/h (1 Bft) 97,87 %
19.03.2023 03:58 9,8 C 8,9 C 5,0 C 94 % 1011,8 hPa 0,0 l/m 0 min 0 min 0 W/m 6,4 km/h (2 Bft) 95,74 %
19.03.2023 04:00 9,8 C 8,9 C 5,0 C 94 % 1011,8 hPa 0,0 l/m 0 min 0 min 0 W/m 3,2 km/h (1 Bft) 97,87 %
19.03.2023 04:02 9,7 C 8,9 C 5,0 C 94 % 1011,9 hPa 0,0 l/m 0 min 0 min 0 W/m 6,4 km/h (2 Bft) 100,00 %
19.03.2023 04:04 9,7 C 8,9 C 5,0 C 94 % 1011,9 hPa 0,0 l/m 0 min 0 min 0 W/m 3,2 km/h (1 Bft) 97,87 %
19.03.2023 04:06 9,7 C 8,9 C 5,0 C 94 % 1011,9 hPa 0,0 l/m 0 min 0 min 0 W/m 6,4 km/h (2 Bft) 96,23 %
19.03.2023 04:08 9,7 C 8,9 C 5,0 C 94 % 1011,8 hPa 0,0 l/m 0 min 0 min 0 W/m 3,2 km/h (1 Bft) 100,00 %
19.03.2023 04:10 9,7 C 8,9 C 5,0 C 94 % 1011,8 hPa 0,0 l/m 0 min 0 min 0 W/m 3,2 km/h (1 Bft) 97,83 %
19.03.2023 04:12 9,7 C 8,9 C 5,0 C 94 % 1011,8 hPa 0,0 l/m 0 min 0 min 0 W/m 3,2 km/h (1 Bft) 97,87 %
19.03.2023 04:14 9,7 C 8,9 C 5,0 C 94 % 1011,8 hPa 0,0 l/m 0 min 0 min 0 W/m 3,2 km/h (1 Bft) 100,00 %
19.03.2023 04:16 9,7 C 8,9 C 5,0 C 94 % 1011,8 hPa 0,0 l/m 0 min 0 min 0 W/m 3,2 km/h (1 Bft) 97,96 %
19.03.2023 04:18 9,7 C 8,9 C 5,0 C 94 % 1011,9 hPa 0,0 l/m 0 min 0 min 0 W/m 3,2 km/h (1 Bft) 93,75 %
19.03.2023 04:20 9,7 C 8,9 C 5,0 C 94 % 1011,9 hPa 0,0 l/m 0 min 0 min 0 W/m 3,2 km/h (1 Bft) 100,00 %
19.03.2023 04:22 9,7 C 8,9 C 5,0 C 94 % 1011,9 hPa 0,0 l/m 0 min 0 min 0 W/m 3,2 km/h (1 Bft) 97,87 %
19.03.2023 04:24 9,7 C 8,9 C 5,0 C 94 % 1011,9 hPa 0,0 l/m 0 min 0 min 0 W/m 3,2 km/h (1 Bft) 95,74 %
19.03.2023 04:26 9,7 C 8,9 C 5,0 C 94 % 1011,9 hPa 0,0 l/m 0 min 0 min 0 W/m 6,4 km/h (2 Bft) 97,83 %
19.03.2023 04:28 9,7 C 8,9 C 5,0 C 94 % 1011,9 hPa 0,0 l/m 0 min 0 min 0 W/m 3,2 km/h (1 Bft) 97,87 %
19.03.2023 04:30 9,6 C 8,9 C 5,0 C 94 % 1011,9 hPa 0,0 l/m 0 min 0 min 0 W/m 3,2 km/h (1 Bft) 95,74 %
19.03.2023 04:32 9,6 C 8,9 C 5,0 C 94 % 1012,0 hPa 0,0 l/m 0 min 0 min 0 W/m 3,2 km/h (1 Bft) 97,87 %
19.03.2023 04:34 9,6 C 8,9 C 5,0 C 94 % 1012,0 hPa 0,0 l/m 0 min 0 min 0 W/m 3,2 km/h (1 Bft) 95,74 %
19.03.2023 04:36 9,6 C 8,3 C 5,0 C 94 % 1012,0 hPa 0,0 l/m 0 min 0 min 0 W/m 3,2 km/h (1 Bft) 95,83 %
19.03.2023 04:38 9,6 C 8,3 C 5,0 C 94 % 1012,0 hPa 0,0 l/m 0 min 0 min 0 W/m 3,2 km/h (1 Bft) 97,87 %
19.03.2023 04:40 9,6 C 8,3 C 5,0 C 94 % 1012,0 hPa 0,0 l/m 0 min 0 min 0 W/m 3,2 km/h (1 Bft) 97,83 %
19.03.2023 04:42 9,6 C 8,3 C 5,0 C 94 % 1011,9 hPa 0,0 l/m 0 min 0 min 0 W/m 3,2 km/h (1 Bft) 95,74 %
19.03.2023 04:44 9,6 C 8,3 C 5,0 C 94 % 1012,0 hPa 0,0 l/m 0 min 0 min 0 W/m 3,2 km/h (1 Bft) 97,87 %
19.03.2023 04:46 9,6 C 8,3 C 5,0 C 94 % 1011,9 hPa 0,0 l/m 0 min 0 min 0 W/m 3,2 km/h (1 Bft) 93,62 %
19.03.2023 04:48 9,5 C 8,3 C 5,0 C 94 % 1012,0 hPa 0,0 l/m 0 min 0 min 0 W/m 3,2 km/h (1 Bft) 46,15 %
19.03.2023 04:50 9,5 C 8,9 C 5,0 C 93 % 1012,1 hPa 0,0 l/m 0 min 0 min 0 W/m 3,2 km/h (1 Bft) 97,92 %
19.03.2023 04:52 9,5 C 8,9 C 5,0 C 93 % 1012,0 hPa 0,0 l/m 0 min 0 min 0 W/m 0,0 km/h (0 Bft) 100,00 %
19.03.2023 04:54 9,5 C 8,9 C 5,0 C 94 % 1012,1 hPa 0,0 l/m 0 min 0 min 0 W/m 3,2 km/h (1 Bft) 97,87 %
19.03.2023 04:56 9,5 C 8,9 C 5,0 C 94 % 1012,0 hPa 0,0 l/m 0 min 0 min 0 W/m 3,2 km/h (1 Bft) 97,87 %
19.03.2023 04:58 9,5 C 8,9 C 5,0 C 94 % 1012,1 hPa 0,0 l/m 0 min 0 min 0 W/m 3,2 km/h (1 Bft) 97,87 %
19.03.2023 05:00 9,5 C 8,9 C 5,0 C 94 % 1012,1 hPa 0,0 l/m 0 min 0 min 0 W/m 3,2 km/h (1 Bft) 97,87 %
19.03.2023 05:02 9,5 C 8,9 C 5,0 C 94 % 1012,1 hPa 0,0 l/m 0 min 0 min 0 W/m 3,2 km/h (1 Bft) 95,74 %
19.03.2023 05:04 9,5 C 8,9 C 5,0 C 94 % 1012,1 hPa 0,0 l/m 0 min 0 min 0 W/m 3,2 km/h (1 Bft) 97,87 %
19.03.2023 05:06 9,5 C 8,9 C 5,0 C 94 % 1012,1 hPa 0,0 l/m 0 min 0 min 0 W/m 3,2 km/h (1 Bft) 98,28 %
19.03.2023 05:08 9,5 C 8,9 C 5,0 C 94 % 1012,1 hPa 0,0 l/m 0 min 0 min 0 W/m 3,2 km/h (1 Bft) 97,14 %
19.03.2023 05:10 9,5 C 8,9 C 5,0 C 94 % 1012,1 hPa 0,0 l/m 0 min 0 min 0 W/m 3,2 km/h (1 Bft) 97,87 %
19.03.2023 05:12 9,6 C 8,9 C 5,0 C 94 % 1012,1 hPa 0,0 l/m 0 min 0 min 0 W/m 6,4 km/h (2 Bft) 97,87 %
19.03.2023 05:14 9,6 C 8,9 C 5,0 C 94 % 1012,1 hPa 0,0 l/m 0 min 0 min 0 W/m 3,2 km/h (1 Bft) 97,87 %
19.03.2023 05:16 9,6 C 8,9 C 5,0 C 94 % 1012,2 hPa 0,0 l/m 0 min 0 min 0 W/m 6,4 km/h (2 Bft) 95,83 %
19.03.2023 05:18 9,6 C 8,9 C 5,0 C 94 % 1012,2 hPa 0,0 l/m 0 min 0 min 0 W/m 3,2 km/h (1 Bft) 93,62 %
19.03.2023 05:20 9,6 C 9,4 C 5,0 C 94 % 1012,2 hPa 0,0 l/m 0 min 0 min 0 W/m 3,2 km/h (1 Bft) 97,83 %
19.03.2023 05:22 9,6 C 9,4 C 5,0 C 94 % 1012,2 hPa 0,0 l/m 0 min 0 min 0 W/m 6,4 km/h (2 Bft) 97,87 %
19.03.2023 05:24 9,6 C 9,4 C 5,0 C 94 % 1012,2 hPa 0,0 l/m 0 min 0 min 0 W/m 3,2 km/h (1 Bft) 97,87 %
19.03.2023 05:26 9,6 C 9,4 C 5,0 C 94 % 1012,3 hPa 0,0 l/m 0 min 0 min 0 W/m 3,2 km/h (1 Bft) 95,24 %
19.03.2023 05:28 9,7 C 9,4 C 5,0 C 94 % 1012,3 hPa 0,0 l/m 0 min 0 min 0 W/m 3,2 km/h (1 Bft) 97,87 %
19.03.2023 05:30 9,7 C 9,4 C 5,0 C 94 % 1012,3 hPa 0,0 l/m 0 min 0 min 0 W/m 3,2 km/h (1 Bft) 96,55 %
19.03.2023 05:32 9,7 C 9,4 C 5,0 C 94 % 1012,3 hPa 0,0 l/m 0 min 0 min 0 W/m 3,2 km/h (1 Bft) 95,74 %
19.03.2023 05:34 9,7 C 9,4 C 5,0 C 94 % 1012,3 hPa 0,0 l/m 0 min 0 min 0 W/m 3,2 km/h (1 Bft) 94,29 %
19.03.2023 05:36 9,7 C 9,4 C 5,0 C 94 % 1012,3 hPa 0,0 l/m 0 min 0 min 0 W/m 12,9 km/h (3 Bft) 95,74 %
19.03.2023 05:38 9,7 C 9,4 C 5,0 C 94 % 1012,4 hPa 0,0 l/m 0 min 0 min 0 W/m 12,9 km/h (3 Bft) 91,53 %
19.03.2023 05:40 9,8 C 9,4 C 5,0 C 94 % 1012,3 hPa 0,0 l/m 0 min 0 min 0 W/m 3,2 km/h (1 Bft) 97,14 %
19.03.2023 05:42 9,8 C 9,4 C 5,0 C 94 % 1012,3 hPa 0,0 l/m 0 min 0 min 0 W/m 6,4 km/h (2 Bft) 95,74 %
19.03.2023 05:44 9,8 C 9,4 C 5,0 C 94 % 1012,3 hPa 0,0 l/m 0 min 0 min 0 W/m 6,4 km/h (2 Bft) 95,74 %
19.03.2023 05:46 9,9 C 9,4 C 5,6 C 94 % 1012,4 hPa 0,0 l/m 0 min 0 min 0 W/m 12,9 km/h (3 Bft) 95,74 %
19.03.2023 05:48 9,9 C 9,4 C 5,6 C 94 % 1012,3 hPa 0,0 l/m 0 min 0 min 0 W/m 9,7 km/h (2 Bft) 95,65 %
19.03.2023 05:50 10,0 C 9,4 C 5,6 C 94 % 1012,4 hPa 0,0 l/m 0 min 0 min 0 W/m 6,4 km/h (2 Bft) 93,62 %
19.03.2023 05:52 10,1 C 10,0 C 5,6 C 94 % 1012,4 hPa 0,0 l/m 0 min 0 min 0 W/m 16,1 km/h (3 Bft) 95,74 %
19.03.2023 05:54 10,1 C 10,0 C 5,6 C 94 % 1012,5 hPa 0,0 l/m 0 min 0 min 0 W/m 12,9 km/h (3 Bft) 97,87 %
19.03.2023 05:56 10,1 C 10,0 C 5,6 C 94 % 1012,5 hPa 0,0 l/m 0 min 0 min 0 W/m 16,1 km/h (3 Bft) 95,74 %
19.03.2023 05:58 10,2 C 10,0 C 5,6 C 94 % 1012,5 hPa 0,0 l/m 0 min 0 min 0 W/m 16,1 km/h (3 Bft) 95,74 %
19.03.2023 06:00 10,2 C 10,0 C 5,6 C 94 % 1012,5 hPa 0,0 l/m 0 min 0 min 0 W/m 9,7 km/h (2 Bft) 97,87 %
19.03.2023 06:02 10,2 C 10,0 C 5,6 C 93 % 1012,5 hPa 0,0 l/m 0 min 0 min 0 W/m 12,9 km/h (3 Bft) 97,83 %
19.03.2023 06:04 10,2 C 10,0 C 5,6 C 94 % 1012,5 hPa 0,0 l/m 0 min 0 min 0 W/m 16,1 km/h (3 Bft) 100,00 %
19.03.2023 06:07 10,3 C 10,0 C 5,6 C 93 % 1012,5 hPa 0,0 l/m 0 min 0 min 0 W/m 16,1 km/h (3 Bft) 97,59 %
19.03.2023 06:08 10,3 C 10,0 C 5,6 C 93 % 1012,5 hPa 0,0 l/m 0 min 0 min 0 W/m 16,1 km/h (3 Bft) 100,00 %
19.03.2023 06:12 10,4 C 10,0 C 5,6 C 93 % 1012,6 hPa 0,0 l/m 0 min 4 min 0 W/m 16,1 km/h (3 Bft) 98,21 %
19.03.2023 06:14 10,4 C 10,0 C 5,6 C 93 % 1012,6 hPa 0,0 l/m 0 min 2 min 0 W/m 16,1 km/h (3 Bft) 97,87 %
19.03.2023 06:16 10,4 C 9,4 C 5,6 C 93 % 1012,6 hPa 0,0 l/m 0 min 0 min 0 W/m 12,9 km/h (3 Bft) 97,87 %
19.03.2023 06:18 10,4 C 9,4 C 5,6 C 93 % 1012,6 hPa 0,0 l/m 0 min 0 min 0 W/m 9,7 km/h (2 Bft) 100,00 %
19.03.2023 06:20 10,4 C 9,4 C 5,6 C 93 % 1012,6 hPa 0,0 l/m 0 min 0 min 0 W/m 6,4 km/h (2 Bft) 100,00 %
19.03.2023 06:22 10,4 C 9,4 C 5,6 C 93 % 1012,6 hPa 0,0 l/m 0 min 2 min 0 W/m 6,4 km/h (2 Bft) 100,00 %
19.03.2023 06:24 10,4 C 9,4 C 5,6 C 93 % 1012,6 hPa 0,0 l/m 0 min 0 min 0 W/m 12,9 km/h (3 Bft) 97,87 %
19.03.2023 06:26 10,4 C 9,4 C 5,6 C 93 % 1012,6 hPa 0,0 l/m 0 min 2 min 0 W/m 3,2 km/h (1 Bft) 86,96 %
19.03.2023 06:28 10,4 C 9,4 C 5,6 C 93 % 1012,6 hPa 0,0 l/m 0 min 2 min 0 W/m 6,4 km/h (2 Bft) 62,79 %
19.03.2023 06:30 10,4 C 9,4 C 5,6 C 93 % 1012,6 hPa 0,2 l/m 0 min 2 min 0 W/m 16,1 km/h (3 Bft) 97,87 %
19.03.2023 06:32 10,4 C 9,4 C 5,6 C 93 % 1012,6 hPa 0,0 l/m 0 min 2 min 0 W/m 16,1 km/h (3 Bft) 97,87 %
19.03.2023 06:34 10,3 C 9,4 C 5,6 C 93 % 1012,6 hPa 0,0 l/m 0 min 0 min 0 W/m 6,4 km/h (2 Bft) 97,87 %
19.03.2023 06:36 10,3 C 9,4 C 5,6 C 93 % 1012,6 hPa 0,0 l/m 0 min 0 min 0 W/m 3,2 km/h (1 Bft) 97,87 %
19.03.2023 06:38 10,3 C 9,4 C 5,6 C 93 % 1012,6 hPa 0,0 l/m 0 min 0 min 0 W/m 3,2 km/h (1 Bft) 95,65 %
19.03.2023 06:40 10,3 C 9,4 C 5,6 C 93 % 1012,7 hPa 0,0 l/m 0 min 0 min 0 W/m 3,2 km/h (1 Bft) 97,87 %
19.03.2023 06:42 10,3 C 9,4 C 5,6 C 93 % 1012,7 hPa 0,0 l/m 0 min 0 min 0 W/m 6,4 km/h (2 Bft) 97,87 %
19.03.2023 06:44 10,3 C 9,4 C 5,6 C 93 % 1012,6 hPa 0,0 l/m 0 min 2 min 0 W/m 6,4 km/h (2 Bft) 97,87 %
19.03.2023 06:46 10,3 C 9,4 C 5,6 C 94 % 1012,6 hPa 0,0 l/m 0 min 0 min 0 W/m 3,2 km/h (1 Bft) 97,87 %
19.03.2023 06:48 10,3 C 9,4 C 5,6 C 94 % 1012,6 hPa 0,0 l/m 0 min 0 min 4 W/m 3,2 km/h (1 Bft) 97,87 %
19.03.2023 06:50 10,3 C 9,4 C 5,6 C 94 % 1012,7 hPa 0,0 l/m 0 min 0 min 7 W/m 6,4 km/h (2 Bft) 95,74 %
19.03.2023 06:52 10,3 C 9,4 C 5,6 C 94 % 1012,8 hPa 0,0 l/m 0 min 0 min 7 W/m 6,4 km/h (2 Bft) 95,65 %
19.03.2023 06:54 10,2 C 9,4 C 5,6 C 94 % 1012,8 hPa 0,0 l/m 0 min 0 min 7 W/m 6,4 km/h (2 Bft) 97,87 %
19.03.2023 06:56 10,2 C 9,4 C 5,6 C 94 % 1012,8 hPa 0,0 l/m 0 min 0 min 8 W/m 6,4 km/h (2 Bft) 97,87 %
19.03.2023 06:58 10,2 C 9,4 C 5,6 C 94 % 1012,7 hPa 0,0 l/m 0 min 0 min 10 W/m 6,4 km/h (2 Bft) 97,87 %
19.03.2023 07:00 10,2 C 9,4 C 5,6 C 94 % 1012,8 hPa 0,0 l/m 0 min 0 min 11 W/m 6,4 km/h (2 Bft) 97,87 %
19.03.2023 07:02 10,2 C 9,4 C 5,6 C 94 % 1012,7 hPa 0,0 l/m 0 min 0 min 12 W/m 6,4 km/h (2 Bft) 95,74 %
19.03.2023 07:04 10,2 C 9,4 C 5,6 C 94 % 1012,7 hPa 0,0 l/m 0 min 0 min 14 W/m 6,4 km/h (2 Bft) 95,74 %
19.03.2023 07:06 10,2 C 9,4 C 5,6 C 94 % 1012,8 hPa 0,0 l/m 0 min 0 min 13 W/m 6,4 km/h (2 Bft) 94,83 %
19.03.2023 07:08 10,2 C 9,4 C 5,6 C 94 % 1012,8 hPa 0,0 l/m 0 min 0 min 12 W/m 6,4 km/h (2 Bft) 97,14 %
19.03.2023 07:10 10,2 C 9,4 C 5,6 C 94 % 1012,8 hPa 0,0 l/m 0 min 0 min 10 W/m 3,2 km/h (1 Bft) 97,87 %
19.03.2023 07:12 10,2 C 9,4 C 5,6 C 94 % 1012,8 hPa 0,0 l/m 0 min 0 min 9 W/m 3,2 km/h (1 Bft) 100,00 %
19.03.2023 07:14 10,2 C 9,4 C 5,6 C 94 % 1012,8 hPa 0,0 l/m 0 min 0 min 9 W/m 6,4 km/h (2 Bft) 100,00 %
19.03.2023 07:16 10,2 C 9,4 C 5,6 C 94 % 1012,8 hPa 0,0 l/m 0 min 0 min 11 W/m 3,2 km/h (1 Bft) 100,00 %
19.03.2023 07:18 10,2 C 9,4 C 5,6 C 94 % 1012,9 hPa 0,0 l/m 0 min 0 min 12 W/m 6,4 km/h (2 Bft) 95,74 %
19.03.2023 07:20 10,2 C 9,4 C 5,6 C 94 % 1012,9 hPa 0,0 l/m 0 min 0 min 12 W/m 6,4 km/h (2 Bft) 97,83 %
19.03.2023 07:22 10,2 C 9,4 C 5,6 C 95 % 1012,9 hPa 0,0 l/m 0 min 0 min 11 W/m 6,4 km/h (2 Bft) 95,74 %
19.03.2023 07:24 10,1 C 9,4 C 5,6 C 95 % 1012,9 hPa 0,0 l/m 0 min 0 min 11 W/m 9,7 km/h (2 Bft) 97,87 %
19.03.2023 07:26 10,1 C 9,4 C 5,6 C 95 % 1013,0 hPa 0,0 l/m 0 min 0 min 9 W/m 12,9 km/h (3 Bft) 97,87 %
19.03.2023 07:28 10,1 C 9,4 C 5,6 C 95 % 1013,0 hPa 0,0 l/m 0 min 0 min 6 W/m 6,4 km/h (2 Bft) 97,87 %
19.03.2023 07:30 10,1 C 9,4 C 5,6 C 95 % 1013,0 hPa 0,0 l/m 0 min 0 min 5 W/m 6,4 km/h (2 Bft) 97,87 %
19.03.2023 07:32 10,1 C 9,4 C 5,6 C 95 % 1013,1 hPa 0,0 l/m 0 min 0 min 9 W/m 12,9 km/h (3 Bft) 95,74 %
19.03.2023 07:34 10,1 C 9,4 C 5,6 C 95 % 1013,1 hPa 0,0 l/m 0 min 0 min 14 W/m 9,7 km/h (2 Bft) 97,83 %
19.03.2023 07:36 10,1 C 9,4 C 5,6 C 95 % 1013,1 hPa 0,0 l/m 0 min 0 min 16 W/m 9,7 km/h (2 Bft) 97,87 %
19.03.2023 07:38 10,1 C 9,4 C 5,6 C 95 % 1013,1 hPa 0,0 l/m 0 min 0 min 17 W/m 9,7 km/h (2 Bft) 97,87 %
19.03.2023 07:40 10,1 C 9,4 C 5,6 C 95 % 1013,1 hPa 0,0 l/m 0 min 0 min 19 W/m 16,1 km/h (3 Bft) 97,87 %
19.03.2023 07:42 10,1 C 9,4 C 5,6 C 95 % 1013,1 hPa 0,0 l/m 0 min 0 min 21 W/m 12,9 km/h (3 Bft) 95,74 %
19.03.2023 07:44 10,1 C 9,4 C 5,6 C 95 % 1013,1 hPa 0,0 l/m 0 min 0 min 21 W/m 19,3 km/h (3 Bft) 97,87 %
19.03.2023 07:46 10,1 C 9,4 C 5,6 C 95 % 1013,1 hPa 0,0 l/m 0 min 0 min 24 W/m 9,7 km/h (2 Bft) 97,87 %
19.03.2023 07:48 10,1 C 9,4 C 5,6 C 95 % 1013,1 hPa 0,0 l/m 0 min 0 min 26 W/m 12,9 km/h (3 Bft) 97,83 %
19.03.2023 07:50 10,1 C 9,4 C 5,6 C 95 % 1013,1 hPa 0,0 l/m 0 min 0 min 30 W/m 19,3 km/h (3 Bft) 97,87 %
19.03.2023 07:52 10,2 C 9,4 C 5,6 C 95 % 1013,1 hPa 0,0 l/m 0 min 0 min 32 W/m 6,4 km/h (2 Bft) 97,87 %
19.03.2023 07:54 10,2 C 9,4 C 5,6 C 95 % 1013,1 hPa 0,0 l/m 0 min 0 min 33 W/m 9,7 km/h (2 Bft) 97,87 %
19.03.2023 07:56 10,2 C 10,0 C 5,6 C 95 % 1013,1 hPa 0,0 l/m 0 min 0 min 40 W/m 6,4 km/h (2 Bft) 97,87 %
19.03.2023 07:58 10,2 C 10,0 C 5,6 C 95 % 1013,1 hPa 0,0 l/m 0 min 0 min 51 W/m 16,1 km/h (3 Bft) 97,87 %
19.03.2023 08:00 10,2 C 10,0 C 5,6 C 95 % 1013,1 hPa 0,0 l/m 0 min 0 min 60 W/m 6,4 km/h (2 Bft) 97,83 %
19.03.2023 08:02 10,3 C 10,0 C 6,1 C 95 % 1013,1 hPa 0,0 l/m 0 min 0 min 70 W/m 16,1 km/h (3 Bft) 97,87 %
19.03.2023 08:04 10,3 C 10,0 C 6,1 C 95 % 1013,2 hPa 0,0 l/m 0 min 0 min 84 W/m 9,7 km/h (2 Bft) 97,87 %
19.03.2023 08:06 10,3 C 10,6 C 6,1 C 96 % 1013,1 hPa 0,0 l/m 0 min 0 min 91 W/m 12,9 km/h (3 Bft) 96,61 %
19.03.2023 08:08 10,3 C 10,6 C 6,1 C 96 % 1013,2 hPa 0,0 l/m 0 min 0 min 96 W/m 9,7 km/h (2 Bft) 94,29 %
19.03.2023 08:10 10,4 C 10,6 C 6,1 C 95 % 1013,2 hPa 0,0 l/m 0 min 0 min 100 W/m 9,7 km/h (2 Bft) 97,87 %
19.03.2023 08:12 10,4 C 10,6 C 6,1 C 96 % 1013,2 hPa 0,0 l/m 0 min 0 min 98 W/m 12,9 km/h (3 Bft) 93,62 %
19.03.2023 08:14 10,4 C 10,6 C 6,1 C 95 % 1013,2 hPa 0,0 l/m 0 min 0 min 96 W/m 12,9 km/h (3 Bft) 93,62 %
19.03.2023 08:16 10,5 C 10,6 C 6,1 C 95 % 1013,3 hPa 0,0 l/m 0 min 0 min 88 W/m 6,4 km/h (2 Bft) 97,83 %
19.03.2023 08:18 10,5 C 10,6 C 6,1 C 95 % 1013,3 hPa 0,0 l/m 0 min 0 min 82 W/m 6,4 km/h (2 Bft) 97,87 %
19.03.2023 08:20 10,6 C 10,6 C 6,1 C 95 % 1013,3 hPa 0,0 l/m 0 min 0 min 77 W/m 12,9 km/h (3 Bft) 93,62 %
19.03.2023 08:22 10,6 C 10,6 C 6,1 C 95 % 1013,3 hPa 0,0 l/m 0 min 0 min 74 W/m 9,7 km/h (2 Bft) 93,62 %
19.03.2023 08:24 10,6 C 10,6 C 6,1 C 96 % 1013,3 hPa 0,0 l/m 0 min 0 min 74 W/m 3,2 km/h (1 Bft) 97,87 %
19.03.2023 08:26 10,6 C 10,6 C 6,1 C 96 % 1013,4 hPa 0,0 l/m 0 min 0 min 77 W/m 6,4 km/h (2 Bft) 93,62 %
19.03.2023 08:28 10,7 C 10,6 C 6,1 C 96 % 1013,4 hPa 0,0 l/m 0 min 0 min 81 W/m 9,7 km/h (2 Bft) 97,83 %
19.03.2023 08:30 10,7 C 10,6 C 6,1 C 96 % 1013,5 hPa 0,0 l/m 0 min 0 min 84 W/m 6,4 km/h (2 Bft) 95,74 %
19.03.2023 08:32 10,7 C 10,6 C 6,1 C 96 % 1013,5 hPa 0,0 l/m 0 min 0 min 84 W/m 6,4 km/h (2 Bft) 93,62 %
19.03.2023 08:34 10,7 C 10,6 C 6,1 C 95 % 1013,5 hPa 0,0 l/m 0 min 0 min 88 W/m 9,7 km/h (2 Bft) 95,74 %
19.03.2023 08:36 10,8 C 10,6 C 6,1 C 95 % 1013,5 hPa 0,0 l/m 0 min 0 min 90 W/m 9,7 km/h (2 Bft) 97,87 %
19.03.2023 08:38 10,8 C 10,6 C 6,1 C 95 % 1013,5 hPa 0,0 l/m 0 min 0 min 84 W/m 12,9 km/h (3 Bft) 93,62 %
19.03.2023 08:40 10,8 C 10,6 C 6,1 C 95 % 1013,5 hPa 0,0 l/m 0 min 0 min 77 W/m 9,7 km/h (2 Bft) 95,74 %
19.03.2023 08:42 10,8 C 10,6 C 6,1 C 95 % 1013,5 hPa 0,0 l/m 0 min 0 min 74 W/m 9,7 km/h (2 Bft) 97,83 %
19.03.2023 08:44 10,8 C 10,6 C 6,1 C 95 % 1013,5 hPa 0,0 l/m 0 min 0 min 81 W/m 9,7 km/h (2 Bft) 95,74 %
19.03.2023 08:46 10,8 C 11,1 C 6,1 C 95 % 1013,5 hPa 0,0 l/m 0 min 0 min 97 W/m 12,9 km/h (3 Bft) 97,87 %
19.03.2023 08:48 10,8 C 11,1 C 6,7 C 95 % 1013,5 hPa 0,0 l/m 0 min 0 min 111 W/m 12,9 km/h (3 Bft) 93,62 %
19.03.2023 08:50 10,9 C 11,1 C 6,7 C 95 % 1013,5 hPa 0,0 l/m 0 min 0 min 114 W/m 6,4 km/h (2 Bft) 93,62 %
19.03.2023 08:52 10,9 C 11,1 C 6,7 C 95 % 1013,6 hPa 0,0 l/m 0 min 0 min 93 W/m 9,7 km/h (2 Bft) 95,74 %
19.03.2023 08:54 10,9 C 11,1 C 6,7 C 95 % 1013,6 hPa 0,0 l/m 0 min 0 min 79 W/m 9,7 km/h (2 Bft) 95,65 %
19.03.2023 08:56 10,9 C 11,1 C 6,7 C 95 % 1013,6 hPa 0,0 l/m 0 min 0 min 89 W/m 9,7 km/h (2 Bft) 95,74 %
19.03.2023 08:58 11,0 C 11,1 C 6,7 C 95 % 1013,6 hPa 0,0 l/m 0 min 0 min 108 W/m 9,7 km/h (2 Bft) 97,87 %
19.03.2023 09:00 11,0 C 11,7 C 6,7 C 95 % 1013,6 hPa 0,0 l/m 0 min 0 min 139 W/m 12,9 km/h (3 Bft) 97,87 %
19.03.2023 09:02 11,1 C 11,7 C 6,7 C 95 % 1013,6 hPa 0,0 l/m 0 min 0 min 165 W/m 6,4 km/h (2 Bft) 95,74 %
19.03.2023 09:04 11,1 C 12,2 C 6,7 C 95 % 1013,7 hPa 0,0 l/m 2 min 0 min 178 W/m 6,4 km/h (2 Bft) 97,87 %
19.03.2023 09:06 11,1 C 12,2 C 6,7 C 95 % 1013,6 hPa 0,0 l/m 2 min 0 min 200 W/m 6,4 km/h (2 Bft) 98,28 %
19.03.2023 09:08 11,2 C 12,8 C 7,2 C 95 % 1013,7 hPa 0,0 l/m 2 min 0 min 220 W/m 9,7 km/h (2 Bft) 94,29 %
19.03.2023 09:10 11,2 C 12,8 C 7,2 C 95 % 1013,7 hPa 0,0 l/m 2 min 0 min 251 W/m 6,4 km/h (2 Bft) 97,87 %
19.03.2023 09:12 11,3 C 14,4 C 7,2 C 95 % 1013,7 hPa 0,0 l/m 2 min 0 min 327 W/m 12,9 km/h (3 Bft) 95,74 %
19.03.2023 09:14 11,4 C 15,0 C 7,2 C 95 % 1013,6 hPa 0,0 l/m 2 min 0 min 414 W/m 12,9 km/h (3 Bft) 95,74 %
19.03.2023 09:16 11,5 C 14,4 C 7,2 C 95 % 1013,6 hPa 0,0 l/m 2 min 0 min 311 W/m 9,7 km/h (2 Bft) 95,74 %
19.03.2023 09:18 11,6 C 14,4 C 7,8 C 95 % 1013,7 hPa 0,0 l/m 2 min 0 min 281 W/m 12,9 km/h (3 Bft) 97,87 %
19.03.2023 09:20 11,7 C 14,4 C 7,2 C 95 % 1013,7 hPa 0,0 l/m 2 min 0 min 255 W/m 16,1 km/h (3 Bft) 95,74 %
19.03.2023 09:22 11,8 C 13,9 C 7,2 C 95 % 1013,7 hPa 0,0 l/m 2 min 0 min 214 W/m 16,1 km/h (3 Bft) 93,48 %
19.03.2023 09:24 11,8 C 13,9 C 7,2 C 95 % 1013,8 hPa 0,0 l/m 0 min 0 min 194 W/m 9,7 km/h (2 Bft) 95,74 %
19.03.2023 09:26 11,9 C 13,3 C 7,2 C 94 % 1013,8 hPa 0,0 l/m 0 min 2 min 198 W/m 9,7 km/h (2 Bft) 93,62 %
19.03.2023 09:28 12,0 C 13,3 C 7,2 C 94 % 1013,8 hPa 0,0 l/m 2 min 2 min 203 W/m 9,7 km/h (2 Bft) 95,74 %
19.03.2023 09:30 12,1 C 13,3 C 7,2 C 94 % 1013,8 hPa 0,0 l/m 0 min 2 min 199 W/m 6,4 km/h (2 Bft) 95,74 %
19.03.2023 09:32 12,1 C 13,3 C 7,2 C 94 % 1013,8 hPa 0,0 l/m 2 min 2 min 205 W/m 16,1 km/h (3 Bft) 93,62 %
19.03.2023 09:34 12,1 C 12,8 C 7,2 C 94 % 1013,8 hPa 0,0 l/m 2 min 2 min 210 W/m 12,9 km/h (3 Bft) 93,62 %
19.03.2023 09:36 12,2 C 12,8 C 7,2 C 94 % 1013,8 hPa 0,0 l/m 0 min 0 min 203 W/m 16,1 km/h (3 Bft) 95,65 %
19.03.2023 09:38 12,2 C 12,8 C 7,2 C 94 % 1013,8 hPa 0,0 l/m 0 min 2 min 203 W/m 12,9 km/h (3 Bft) 95,74 %
19.03.2023 09:40 12,2 C 12,8 C 7,2 C 94 % 1013,7 hPa 0,0 l/m 0 min 0 min 205 W/m 12,9 km/h (3 Bft) 95,74 %
19.03.2023 09:42 12,2 C 12,8 C 7,2 C 93 % 1013,8 hPa 0,0 l/m 0 min 2 min 200 W/m 12,9 km/h (3 Bft) 95,74 %
19.03.2023 09:44 12,2 C 12,8 C 7,2 C 93 % 1013,7 hPa 0,0 l/m 0 min 0 min 200 W/m 12,9 km/h (3 Bft) 95,74 %
19.03.2023 09:46 12,2 C 12,8 C 7,2 C 93 % 1013,8 hPa 0,0 l/m 0 min 2 min 198 W/m 19,3 km/h (3 Bft) 97,87 %
19.03.2023 09:48 12,2 C 12,8 C 7,2 C 93 % 1013,8 hPa 0,0 l/m 0 min 2 min 183 W/m 9,7 km/h (2 Bft) 95,74 %
19.03.2023 09:50 12,2 C 12,8 C 7,2 C 93 % 1013,9 hPa 0,0 l/m 0 min 2 min 188 W/m 12,9 km/h (3 Bft) 100,00 %
19.03.2023 09:52 12,3 C 12,8 C 7,2 C 93 % 1013,8 hPa 0,0 l/m 0 min 0 min 189 W/m 9,7 km/h (2 Bft) 100,00 %
19.03.2023 09:54 12,3 C 12,8 C 7,2 C 93 % 1013,8 hPa 0,0 l/m 0 min 0 min 191 W/m 16,1 km/h (3 Bft) 100,00 %
19.03.2023 09:56 12,3 C 12,8 C 7,2 C 92 % 1013,9 hPa 0,0 l/m 0 min 2 min 185 W/m 19,3 km/h (3 Bft) 100,00 %
19.03.2023 09:58 12,3 C 12,8 C 7,2 C 92 % 1013,9 hPa 0,0 l/m 0 min 2 min 218 W/m 19,3 km/h (3 Bft) 100,00 %
19.03.2023 10:00 12,3 C 12,8 C 7,2 C 92 % 1014,0 hPa 0,0 l/m 2 min 2 min 232 W/m 22,5 km/h (4 Bft) 97,87 %
19.03.2023 10:02 12,3 C 12,8 C 7,2 C 92 % 1014,0 hPa 0,0 l/m 2 min 2 min 244 W/m 16,1 km/h (3 Bft) 97,87 %
19.03.2023 10:04 12,3 C 13,3 C 7,8 C 92 % 1014,0 hPa 0,0 l/m 2 min 2 min 260 W/m 9,7 km/h (2 Bft) 97,83 %
19.03.2023 10:06 12,3 C 12,8 C 7,2 C 92 % 1014,1 hPa 0,0 l/m 0 min 0 min 209 W/m 16,1 km/h (3 Bft) 100,00 %
19.03.2023 10:08 12,3 C 12,8 C 7,2 C 92 % 1014,1 hPa 0,0 l/m 0 min 0 min 197 W/m 16,1 km/h (3 Bft) 100,00 %
19.03.2023 10:10 12,3 C 12,2 C 7,2 C 92 % 1014,1 hPa 0,0 l/m 0 min 0 min 186 W/m 16,1 km/h (3 Bft) 100,00 %
19.03.2023 10:12 12,3 C 12,2 C 7,2 C 92 % 1014,1 hPa 0,0 l/m 0 min 0 min 158 W/m 16,1 km/h (3 Bft) 100,00 %
19.03.2023 10:14 12,3 C 12,2 C 7,2 C 92 % 1014,1 hPa 0,0 l/m 0 min 0 min 136 W/m 12,9 km/h (3 Bft) 97,87 %
19.03.2023 10:16 12,3 C 12,2 C 7,2 C 92 % 1014,1 hPa 0,0 l/m 0 min 0 min 132 W/m 6,4 km/h (2 Bft) 97,83 %
19.03.2023 10:18 12,2 C 12,2 C 7,2 C 92 % 1014,1 hPa 0,0 l/m 0 min 0 min 140 W/m 12,9 km/h (3 Bft) 97,87 %
19.03.2023 10:20 12,2 C 12,2 C 7,2 C 92 % 1014,1 hPa 0,0 l/m 0 min 0 min 158 W/m 6,4 km/h (2 Bft) 100,00 %
19.03.2023 10:22 12,2 C 12,2 C 7,2 C 92 % 1014,1 hPa 0,0 l/m 0 min 0 min 159 W/m 0,0 km/h (0 Bft) 100,00 %
19.03.2023 10:24 12,2 C 12,2 C 7,2 C 92 % 1014,1 hPa 0,0 l/m 0 min 0 min 144 W/m 0,0 km/h (0 Bft) 100,00 %
19.03.2023 10:26 12,3 C 12,2 C 7,2 C 92 % 1014,1 hPa 0,0 l/m 0 min 0 min 140 W/m 6,4 km/h (2 Bft) 100,00 %
19.03.2023 10:28 12,3 C 12,2 C 7,2 C 92 % 1014,1 hPa 0,0 l/m 0 min 0 min 145 W/m 16,1 km/h (3 Bft) 100,00 %
19.03.2023 10:30 12,3 C 12,2 C 7,2 C 91 % 1014,2 hPa 0,0 l/m 0 min 0 min 163 W/m 12,9 km/h (3 Bft) 100,00 %
19.03.2023 10:32 12,3 C 12,2 C 7,2 C 91 % 1014,2 hPa 0,0 l/m 0 min 0 min 164 W/m 6,4 km/h (2 Bft) 100,00 %
19.03.2023 10:34 12,3 C 12,8 C 7,8 C 91 % 1014,2 hPa 0,0 l/m 0 min 0 min 164 W/m 3,2 km/h (1 Bft) 100,00 %
19.03.2023 10:36 12,3 C 12,8 C 7,8 C 91 % 1014,2 hPa 0,0 l/m 0 min 0 min 156 W/m 3,2 km/h (1 Bft) 100,00 %
19.03.2023 10:38 12,3 C 12,8 C 7,8 C 91 % 1014,2 hPa 0,0 l/m 0 min 0 min 142 W/m 6,4 km/h (2 Bft) 97,87 %
19.03.2023 10:40 12,4 C 12,8 C 7,8 C 91 % 1014,2 hPa 0,0 l/m 0 min 0 min 146 W/m 3,2 km/h (1 Bft) 100,00 %
19.03.2023 10:42 12,4 C 12,8 C 7,8 C 91 % 1014,2 hPa 0,0 l/m 0 min 0 min 158 W/m 6,4 km/h (2 Bft) 100,00 %
19.03.2023 10:44 12,4 C 12,8 C 7,8 C 91 % 1014,2 hPa 0,0 l/m 0 min 0 min 187 W/m 9,7 km/h (2 Bft) 100,00 %
19.03.2023 10:46 12,4 C 12,8 C 7,8 C 91 % 1014,2 hPa 0,0 l/m 0 min 0 min 183 W/m 6,4 km/h (2 Bft) 100,00 %
19.03.2023 10:48 12,4 C 12,8 C 7,8 C 91 % 1014,2 hPa 0,0 l/m 0 min 0 min 160 W/m 6,4 km/h (2 Bft) 100,00 %
19.03.2023 10:50 12,4 C 12,8 C 7,8 C 91 % 1014,2 hPa 0,0 l/m 0 min 0 min 155 W/m 3,2 km/h (1 Bft) 100,00 %
19.03.2023 10:52 12,5 C 12,8 C 7,8 C 91 % 1014,3 hPa 0,0 l/m 0 min 0 min 157 W/m 12,9 km/h (3 Bft) 100,00 %
19.03.2023 10:54 12,4 C 12,8 C 7,8 C 91 % 1014,3 hPa 0,0 l/m 0 min 0 min 151 W/m 3,2 km/h (1 Bft) 100,00 %
19.03.2023 10:56 12,5 C 12,8 C 8,3 C 91 % 1014,3 hPa 0,0 l/m 0 min 0 min 142 W/m 6,4 km/h (2 Bft) 100,00 %
19.03.2023 10:58 12,5 C 12,8 C 8,3 C 91 % 1014,3 hPa 0,0 l/m 0 min 0 min 124 W/m 3,2 km/h (1 Bft) 100,00 %
19.03.2023 11:00 12,6 C 12,8 C 8,3 C 91 % 1014,3 hPa 0,0 l/m 0 min 0 min 108 W/m 3,2 km/h (1 Bft) 97,87 %
19.03.2023 11:02 12,6 C 12,2 C 8,3 C 91 % 1014,3 hPa 0,0 l/m 0 min 0 min 101 W/m 3,2 km/h (1 Bft) 97,87 %
19.03.2023 11:04 12,6 C 12,8 C 8,3 C 91 % 1014,3 hPa 0,0 l/m 0 min 0 min 108 W/m 6,4 km/h (2 Bft) 95,74 %
19.03.2023 11:06 12,6 C 12,8 C 8,3 C 91 % 1014,3 hPa 0,0 l/m 0 min 0 min 119 W/m 9,7 km/h (2 Bft) 95,74 %
19.03.2023 11:08 12,6 C 12,8 C 8,3 C 91 % 1014,3 hPa 0,0 l/m 0 min 0 min 190 W/m 6,4 km/h (2 Bft) 97,87 %
19.03.2023 11:10 12,6 C 13,9 C 8,9 C 90 % 1014,4 hPa 0,0 l/m 0 min 0 min 273 W/m 6,4 km/h (2 Bft) 97,83 %
19.03.2023 11:12 12,7 C 14,4 C 8,9 C 91 % 1014,4 hPa 0,0 l/m 0 min 0 min 258 W/m 3,2 km/h (1 Bft) 97,87 %
19.03.2023 11:14 12,8 C 16,7 C 10,6 C 91 % 1014,3 hPa 0,0 l/m 0 min 0 min 253 W/m 6,4 km/h (2 Bft) 91,49 %
19.03.2023 11:16 12,9 C 16,1 C 11,1 C 91 % 1014,3 hPa 0,0 l/m 2 min 0 min 331 W/m 6,4 km/h (2 Bft) 95,74 %
19.03.2023 11:18 13,0 C 15,6 C 10,6 C 91 % 1014,3 hPa 0,0 l/m 0 min 0 min 172 W/m 3,2 km/h (1 Bft) 95,74 %
19.03.2023 11:20 13,1 C 15,0 C 10,6 C 91 % 1014,4 hPa 0,0 l/m 0 min 0 min 166 W/m 6,4 km/h (2 Bft) 95,74 %
19.03.2023 11:22 13,1 C 15,0 C 10,0 C 90 % 1014,4 hPa 0,0 l/m 0 min 0 min 198 W/m 12,9 km/h (3 Bft) 93,48 %
19.03.2023 11:24 13,2 C 16,1 C 11,1 C 90 % 1014,4 hPa 0,0 l/m 0 min 0 min 232 W/m 6,4 km/h (2 Bft) 95,74 %
19.03.2023 11:26 13,2 C 15,6 C 10,6 C 89 % 1014,4 hPa 0,0 l/m 0 min 0 min 210 W/m 16,1 km/h (3 Bft) 95,74 %
19.03.2023 11:28 13,2 C 15,0 C 10,6 C 88 % 1014,5 hPa 0,0 l/m 0 min 0 min 205 W/m 12,9 km/h (3 Bft) 95,74 %
19.03.2023 11:30 13,3 C 16,7 C 11,1 C 88 % 1014,4 hPa 0,0 l/m 0 min 0 min 223 W/m 12,9 km/h (3 Bft) 93,62 %
19.03.2023 11:32 13,4 C 20,6 C 13,3 C 88 % 1014,4 hPa 0,0 l/m 2 min 0 min 581 W/m 6,4 km/h (2 Bft) 95,74 %
19.03.2023 11:34 13,6 C 18,9 C 13,3 C 87 % 1014,4 hPa 0,0 l/m 2 min 0 min 602 W/m 12,9 km/h (3 Bft) 93,62 %
19.03.2023 11:36 13,7 C 17,8 C 12,2 C 87 % 1014,4 hPa 0,0 l/m 0 min 0 min 200 W/m 6,4 km/h (2 Bft) 95,65 %
19.03.2023 11:38 13,8 C 16,1 C 11,7 C 86 % 1014,4 hPa 0,0 l/m 0 min 0 min 175 W/m 6,4 km/h (2 Bft) 95,74 %
19.03.2023 11:40 13,8 C 15,6 C 11,1 C 85 % 1014,5 hPa 0,0 l/m 0 min 0 min 146 W/m 6,4 km/h (2 Bft) 93,62 %
19.03.2023 11:42 13,8 C 15,0 C 10,6 C 85 % 1014,4 hPa 0,0 l/m 0 min 0 min 155 W/m 6,4 km/h (2 Bft) 97,87 %
19.03.2023 11:44 13,8 C 14,4 C 10,6 C 85 % 1014,5 hPa 0,0 l/m 0 min 0 min 181 W/m 6,4 km/h (2 Bft) 97,87 %
19.03.2023 11:46 13,8 C 14,4 C 10,6 C 84 % 1014,5 hPa 0,0 l/m 0 min 0 min 193 W/m 6,4 km/h (2 Bft) 95,74 %
19.03.2023 11:48 13,8 C 14,4 C 10,6 C 84 % 1014,5 hPa 0,0 l/m 0 min 0 min 217 W/m 12,9 km/h (3 Bft) 97,87 %
19.03.2023 11:50 13,7 C 13,9 C 10,0 C 84 % 1014,5 hPa 0,0 l/m 0 min 0 min 195 W/m 12,9 km/h (3 Bft) 97,83 %
19.03.2023 11:52 13,7 C 13,9 C 10,0 C 84 % 1014,5 hPa 0,0 l/m 0 min 0 min 132 W/m 16,1 km/h (3 Bft) 100,00 %
19.03.2023 11:54 13,6 C 13,3 C 10,0 C 83 % 1014,5 hPa 0,0 l/m 0 min 0 min 92 W/m 12,9 km/h (3 Bft) 100,00 %
19.03.2023 11:56 13,6 C 13,3 C 9,4 C 83 % 1014,6 hPa 0,0 l/m 0 min 0 min 84 W/m 9,7 km/h (2 Bft) 97,87 %
19.03.2023 11:58 13,5 C 12,8 C 9,4 C 83 % 1014,5 hPa 0,0 l/m 0 min 0 min 86 W/m 12,9 km/h (3 Bft) 95,74 %
19.03.2023 12:00 13,4 C 12,8 C 9,4 C 82 % 1014,6 hPa 0,0 l/m 0 min 0 min 92 W/m 6,4 km/h (2 Bft) 93,62 %
19.03.2023 12:02 13,3 C 12,8 C 9,4 C 82 % 1014,6 hPa 0,0 l/m 0 min 0 min 103 W/m 6,4 km/h (2 Bft) 100,00 %
19.03.2023 12:04 13,3 C 12,8 C 9,4 C 82 % 1014,5 hPa 0,0 l/m 0 min 0 min 113 W/m 12,9 km/h (3 Bft) 100,00 %
19.03.2023 12:07 13,2 C 12,8 C 8,9 C 81 % 1014,7 hPa 0,0 l/m 0 min 0 min 119 W/m 9,7 km/h (2 Bft) 98,61 %
19.03.2023 12:08 13,2 C 12,8 C 8,9 C 81 % 1014,7 hPa 0,0 l/m 0 min 0 min 126 W/m 6,4 km/h (2 Bft) 100,00 %
19.03.2023 12:12 13,1 C 12,8 C 9,4 C 81 % 1014,7 hPa 0,0 l/m 0 min 0 min 149 W/m 12,9 km/h (3 Bft) 98,04 %
19.03.2023 12:14 13,1 C 12,8 C 9,4 C 81 % 1014,7 hPa 0,0 l/m 0 min 0 min 161 W/m 6,4 km/h (2 Bft) 97,87 %
19.03.2023 12:16 13,2 C 13,3 C 9,4 C 81 % 1014,7 hPa 0,0 l/m 0 min 0 min 167 W/m 6,4 km/h (2 Bft) 97,87 %
19.03.2023 12:18 13,2 C 13,3 C 9,4 C 81 % 1014,7 hPa 0,0 l/m 0 min 0 min 161 W/m 3,2 km/h (1 Bft) 97,87 %
19.03.2023 12:20 13,2 C 13,3 C 9,4 C 81 % 1014,7 hPa 0,0 l/m 0 min 0 min 148 W/m 6,4 km/h (2 Bft) 97,87 %
19.03.2023 12:22 13,2 C 12,8 C 9,4 C 81 % 1014,7 hPa 0,0 l/m 0 min 0 min 138 W/m 12,9 km/h (3 Bft) 97,87 %
19.03.2023 12:24 13,2 C 12,8 C 9,4 C 80 % 1014,6 hPa 0,0 l/m 0 min 0 min 128 W/m 12,9 km/h (3 Bft) 95,74 %
19.03.2023 12:26 13,2 C 12,8 C 9,4 C 80 % 1014,6 hPa 0,0 l/m 0 min 0 min 116 W/m 12,9 km/h (3 Bft) 97,83 %
19.03.2023 12:28 13,2 C 12,8 C 9,4 C 80 % 1014,6 hPa 0,0 l/m 0 min 0 min 108 W/m 3,2 km/h (1 Bft) 97,87 %
19.03.2023 12:30 13,2 C 12,8 C 8,9 C 80 % 1014,6 hPa 0,0 l/m 0 min 0 min 105 W/m 6,4 km/h (2 Bft) 95,74 %
19.03.2023 12:32 13,2 C 12,8 C 8,9 C 81 % 1014,6 hPa 0,0 l/m 0 min 0 min 107 W/m 6,4 km/h (2 Bft) 97,87 %
19.03.2023 12:34 13,2 C 12,8 C 8,9 C 81 % 1014,6 hPa 0,0 l/m 0 min 0 min 110 W/m 3,2 km/h (1 Bft) 97,87 %
19.03.2023 12:36 13,2 C 12,8 C 8,9 C 82 % 1014,7 hPa 0,0 l/m 0 min 0 min 111 W/m 6,4 km/h (2 Bft) 95,74 %
19.03.2023 12:38 13,2 C 12,8 C 8,9 C 82 % 1014,6 hPa 0,0 l/m 0 min 0 min 110 W/m 3,2 km/h (1 Bft) 97,87 %
19.03.2023 12:40 13,2 C 12,8 C 8,9 C 82 % 1014,6 hPa 0,0 l/m 0 min 0 min 112 W/m 3,2 km/h (1 Bft) 97,83 %
19.03.2023 12:42 13,3 C 12,8 C 8,9 C 82 % 1014,7 hPa 0,0 l/m 0 min 0 min 119 W/m 6,4 km/h (2 Bft) 97,87 %
19.03.2023 12:44 13,2 C 12,8 C 8,9 C 82 % 1014,6 hPa 0,0 l/m 0 min 0 min 126 W/m 6,4 km/h (2 Bft) 95,74 %
19.03.2023 12:46 13,3 C 13,3 C 8,9 C 81 % 1014,7 hPa 0,0 l/m 0 min 0 min 133 W/m 6,4 km/h (2 Bft) 97,87 %
19.03.2023 12:48 13,3 C 13,3 C 8,9 C 81 % 1014,7 hPa 0,0 l/m 0 min 0 min 145 W/m 3,2 km/h (1 Bft) 95,74 %
19.03.2023 12:50 13,3 C 13,3 C 9,4 C 81 % 1014,7 hPa 0,0 l/m 0 min 0 min 167 W/m 3,2 km/h (1 Bft) 97,87 %
19.03.2023 12:52 13,3 C 13,9 C 9,4 C 81 % 1014,7 hPa 0,0 l/m 0 min 0 min 198 W/m 3,2 km/h (1 Bft) 97,87 %
19.03.2023 12:54 13,3 C 13,9 C 9,4 C 81 % 1014,7 hPa 0,0 l/m 0 min 0 min 245 W/m 3,2 km/h (1 Bft) 97,83 %
19.03.2023 12:56 13,4 C 13,9 C 9,4 C 81 % 1014,6 hPa 0,0 l/m 0 min 0 min 251 W/m 6,4 km/h (2 Bft) 97,87 %
19.03.2023 12:58 13,4 C 13,9 C 9,4 C 80 % 1014,6 hPa 0,0 l/m 0 min 0 min 236 W/m 6,4 km/h (2 Bft) 97,87 %
19.03.2023 13:00 13,4 C 14,4 C 10,0 C 81 % 1014,6 hPa 0,0 l/m 0 min 0 min 208 W/m 3,2 km/h (1 Bft) 97,87 %
19.03.2023 13:02 13,5 C 14,4 C 10,0 C 80 % 1014,6 hPa 0,0 l/m 0 min 0 min 185 W/m 3,2 km/h (1 Bft) 95,74 %
19.03.2023 13:04 13,6 C 13,9 C 10,0 C 80 % 1014,6 hPa 0,0 l/m 0 min 0 min 166 W/m 6,4 km/h (2 Bft) 97,87 %
19.03.2023 13:06 13,6 C 13,9 C 10,0 C 79 % 1014,6 hPa 0,0 l/m 0 min 0 min 154 W/m 3,2 km/h (1 Bft) 98,28 %
19.03.2023 13:08 13,6 C 14,4 C 10,0 C 79 % 1014,6 hPa 0,0 l/m 0 min 0 min 161 W/m 6,4 km/h (2 Bft) 100,00 %
19.03.2023 13:10 13,7 C 14,4 C 10,0 C 79 % 1014,6 hPa 0,0 l/m 0 min 0 min 184 W/m 3,2 km/h (1 Bft) 100,00 %
19.03.2023 13:12 13,7 C 15,0 C 10,0 C 80 % 1014,6 hPa 0,0 l/m 0 min 0 min 265 W/m 3,2 km/h (1 Bft) 100,00 %
19.03.2023 13:14 13,8 C 15,6 C 10,0 C 79 % 1014,6 hPa 0,0 l/m 0 min 0 min 292 W/m 3,2 km/h (1 Bft) 97,87 %
19.03.2023 13:16 13,8 C 16,7 C 10,0 C 79 % 1014,6 hPa 0,0 l/m 2 min 0 min 354 W/m 3,2 km/h (1 Bft) 97,87 %
19.03.2023 13:18 13,9 C 17,8 C 10,6 C 79 % 1014,6 hPa 0,0 l/m 2 min 0 min 448 W/m 3,2 km/h (1 Bft) 97,87 %
19.03.2023 13:20 14,1 C 18,3 C 10,6 C 79 % 1014,6 hPa 0,0 l/m 2 min 0 min 451 W/m 6,4 km/h (2 Bft) 100,00 %
19.03.2023 13:22 14,1 C 17,8 C 11,1 C 78 % 1014,6 hPa 0,0 l/m 2 min 0 min 314 W/m 6,4 km/h (2 Bft) 100,00 %
19.03.2023 13:24 14,3 C 16,7 C 10,6 C 77 % 1014,6 hPa 0,0 l/m 0 min 0 min 243 W/m 6,4 km/h (2 Bft) 97,87 %
19.03.2023 13:26 14,3 C 17,2 C 10,6 C 77 % 1014,6 hPa 0,0 l/m 0 min 0 min 211 W/m 3,2 km/h (1 Bft) 97,87 %
19.03.2023 13:28 14,3 C 17,2 C 10,6 C 77 % 1014,6 hPa 0,0 l/m 0 min 0 min 209 W/m 3,2 km/h (1 Bft) 97,87 %
19.03.2023 13:30 14,3 C 16,7 C 10,6 C 77 % 1014,6 hPa 0,0 l/m 0 min 0 min 203 W/m 3,2 km/h (1 Bft) 93,62 %
19.03.2023 13:32 14,3 C 16,1 C 10,6 C 76 % 1014,7 hPa 0,0 l/m 0 min 0 min 189 W/m 6,4 km/h (2 Bft) 95,74 %
19.03.2023 13:34 14,4 C 15,6 C 10,6 C 76 % 1014,6 hPa 0,0 l/m 0 min 0 min 185 W/m 3,2 km/h (1 Bft) 97,83 %
19.03.2023 13:36 14,4 C 15,6 C 10,6 C 76 % 1014,6 hPa 0,0 l/m 0 min 0 min 160 W/m 0,0 km/h (0 Bft) 95,74 %
19.03.2023 13:38 14,5 C 15,0 C 10,6 C 76 % 1014,6 hPa 0,0 l/m 0 min 0 min 138 W/m 3,2 km/h (1 Bft) 95,74 %
19.03.2023 13:40 14,6 C 15,0 C 10,6 C 77 % 1014,6 hPa 0,0 l/m 0 min 0 min 132 W/m 9,7 km/h (2 Bft) 95,74 %
19.03.2023 13:42 14,6 C 15,0 C 10,6 C 77 % 1014,6 hPa 0,0 l/m 0 min 0 min 142 W/m 6,4 km/h (2 Bft) 95,74 %
19.03.2023 13:44 14,6 C 14,4 C 10,6 C 77 % 1014,6 hPa 0,0 l/m 0 min 0 min 152 W/m 3,2 km/h (1 Bft) 93,62 %
19.03.2023 13:46 14,6 C 15,0 C 10,0 C 77 % 1014,5 hPa 0,0 l/m 0 min 0 min 132 W/m 3,2 km/h (1 Bft) 95,74 %
19.03.2023 13:48 14,6 C 14,4 C 10,0 C 78 % 1014,6 hPa 0,0 l/m 0 min 0 min 136 W/m 6,4 km/h (2 Bft) 95,65 %
19.03.2023 13:50 14,7 C 14,4 C 10,0 C 78 % 1014,5 hPa 0,0 l/m 0 min 0 min 147 W/m 6,4 km/h (2 Bft) 95,74 %
19.03.2023 13:52 14,7 C 14,4 C 10,0 C 78 % 1014,5 hPa 0,0 l/m 0 min 0 min 156 W/m 6,4 km/h (2 Bft) 95,74 %
19.03.2023 13:54 14,7 C 14,4 C 10,0 C 79 % 1014,5 hPa 0,0 l/m 0 min 0 min 159 W/m 6,4 km/h (2 Bft) 95,74 %
19.03.2023 13:56 14,6 C 14,4 C 10,0 C 79 % 1014,6 hPa 0,0 l/m 0 min 0 min 151 W/m 6,4 km/h (2 Bft) 95,74 %
19.03.2023 13:58 14,6 C 14,4 C 10,0 C 79 % 1014,6 hPa 0,0 l/m 0 min 0 min 137 W/m 6,4 km/h (2 Bft) 95,74 %
19.03.2023 14:00 14,6 C 14,4 C 10,0 C 79 % 1014,6 hPa 0,0 l/m 0 min 0 min 119 W/m 9,7 km/h (2 Bft) 95,65 %
19.03.2023 14:02 14,6 C 14,4 C 10,0 C 79 % 1014,6 hPa 0,0 l/m 0 min 0 min 106 W/m 6,4 km/h (2 Bft) 95,74 %
19.03.2023 14:04 14,6 C 14,4 C 10,0 C 79 % 1014,6 hPa 0,0 l/m 0 min 0 min 90 W/m 6,4 km/h (2 Bft) 97,92 %
19.03.2023 14:06 14,5 C 13,9 C 10,0 C 78 % 1014,6 hPa 0,0 l/m 0 min 0 min 77 W/m 6,4 km/h (2 Bft) 98,08 %
19.03.2023 14:08 14,5 C 13,9 C 10,0 C 78 % 1014,6 hPa 0,0 l/m 0 min 0 min 68 W/m 6,4 km/h (2 Bft) 97,87 %
19.03.2023 14:10 14,4 C 13,9 C 10,0 C 78 % 1014,6 hPa 0,0 l/m 0 min 0 min 61 W/m 6,4 km/h (2 Bft) 97,87 %
19.03.2023 14:12 14,4 C 13,9 C 9,4 C 78 % 1014,6 hPa 0,0 l/m 0 min 0 min 54 W/m 6,4 km/h (2 Bft) 97,83 %
19.03.2023 14:14 14,3 C 13,3 C 9,4 C 78 % 1014,6 hPa 0,0 l/m 0 min 0 min 47 W/m 6,4 km/h (2 Bft) 100,00 %
19.03.2023 14:16 14,3 C 13,3 C 9,4 C 78 % 1014,6 hPa 0,0 l/m 0 min 0 min 45 W/m 6,4 km/h (2 Bft) 97,87 %
19.03.2023 14:18 14,3 C 13,3 C 9,4 C 78 % 1014,6 hPa 0,0 l/m 0 min 0 min 47 W/m 6,4 km/h (2 Bft) 97,87 %
19.03.2023 14:20 14,3 C 13,3 C 9,4 C 78 % 1014,6 hPa 0,0 l/m 0 min 0 min 50 W/m 3,2 km/h (1 Bft) 100,00 %
19.03.2023 14:22 14,3 C 13,3 C 9,4 C 78 % 1014,6 hPa 0,0 l/m 0 min 0 min 54 W/m 3,2 km/h (1 Bft) 100,00 %
19.03.2023 14:24 14,3 C 13,3 C 9,4 C 78 % 1014,6 hPa 0,0 l/m 0 min 0 min 60 W/m 3,2 km/h (1 Bft) 100,00 %
19.03.2023 14:26 14,3 C 13,3 C 9,4 C 78 % 1014,6 hPa 0,0 l/m 0 min 0 min 64 W/m 3,2 km/h (1 Bft) 97,83 %
19.03.2023 14:28 14,3 C 13,3 C 9,4 C 78 % 1014,6 hPa 0,0 l/m 0 min 0 min 67 W/m 3,2 km/h (1 Bft) 100,00 %
19.03.2023 14:30 14,3 C 13,3 C 9,4 C 77 % 1014,6 hPa 0,0 l/m 0 min 0 min 64 W/m 3,2 km/h (1 Bft) 100,00 %
19.03.2023 14:32 14,3 C 13,3 C 9,4 C 77 % 1014,6 hPa 0,0 l/m 0 min 0 min 60 W/m 6,4 km/h (2 Bft) 100,00 %
19.03.2023 14:34 14,2 C 13,3 C 9,4 C 78 % 1014,6 hPa 0,0 l/m 0 min 0 min 52 W/m 9,7 km/h (2 Bft) 100,00 %
19.03.2023 14:36 14,2 C 13,3 C 9,4 C 77 % 1014,6 hPa 0,0 l/m 0 min 0 min 46 W/m 6,4 km/h (2 Bft) 100,00 %
19.03.2023 14:38 14,2 C 13,3 C 9,4 C 78 % 1014,6 hPa 0,0 l/m 0 min 0 min 41 W/m 6,4 km/h (2 Bft) 100,00 %
19.03.2023 14:40 14,2 C 13,3 C 9,4 C 78 % 1014,6 hPa 0,0 l/m 0 min 0 min 37 W/m 6,4 km/h (2 Bft) 100,00 %
19.03.2023 14:42 14,2 C 13,3 C 9,4 C 79 % 1014,6 hPa 0,0 l/m 0 min 2 min 35 W/m 6,4 km/h (2 Bft) 100,00 %
19.03.2023 14:44 14,2 C 13,3 C 8,9 C 79 % 1014,6 hPa 0,0 l/m 0 min 2 min 35 W/m 3,2 km/h (1 Bft) 100,00 %
19.03.2023 14:46 14,2 C 12,8 C 8,9 C 80 % 1014,6 hPa 0,0 l/m 0 min 2 min 35 W/m 3,2 km/h (1 Bft) 100,00 %
19.03.2023 14:48 14,1 C 12,8 C 8,3 C 80 % 1014,6 hPa 0,0 l/m 0 min 2 min 37 W/m 3,2 km/h (1 Bft) 100,00 %
19.03.2023 14:50 14,1 C 12,8 C 7,8 C 81 % 1014,6 hPa 0,0 l/m 0 min 2 min 37 W/m 3,2 km/h (1 Bft) 100,00 %
19.03.2023 14:52 14,1 C 12,8 C 7,8 C 81 % 1014,6 hPa 0,2 l/m 0 min 2 min 40 W/m 3,2 km/h (1 Bft) 100,00 %
19.03.2023 14:54 14,1 C 12,8 C 7,8 C 82 % 1014,6 hPa 0,0 l/m 0 min 0 min 43 W/m 3,2 km/h (1 Bft) 100,00 %
19.03.2023 14:56 14,1 C 12,8 C 7,8 C 82 % 1014,6 hPa 0,0 l/m 0 min 0 min 51 W/m 3,2 km/h (1 Bft) 100,00 %
19.03.2023 14:58 14,1 C 12,8 C 7,8 C 82 % 1014,6 hPa 0,0 l/m 0 min 0 min 61 W/m 0,0 km/h (0 Bft) 100,00 %
19.03.2023 15:00 14,0 C 12,8 C 7,8 C 82 % 1014,6 hPa 0,0 l/m 0 min 0 min 71 W/m 3,2 km/h (1 Bft) 100,00 %
19.03.2023 15:02 14,0 C 12,8 C 7,8 C 83 % 1014,6 hPa 0,0 l/m 0 min 0 min 82 W/m 0,0 km/h (0 Bft) 97,62 %
19.03.2023 15:04 14,0 C 13,3 C 7,8 C 83 % 1014,6 hPa 0,0 l/m 0 min 0 min 96 W/m 0,0 km/h (0 Bft) 100,00 %
19.03.2023 15:06 14,0 C 13,3 C 7,8 C 83 % 1014,6 hPa 0,0 l/m 0 min 0 min 108 W/m 3,2 km/h (1 Bft) 100,00 %
19.03.2023 15:08 13,9 C 13,3 C 7,8 C 84 % 1014,6 hPa 0,0 l/m 0 min 0 min 124 W/m 3,2 km/h (1 Bft) 100,00 %
19.03.2023 15:10 13,9 C 13,9 C 7,8 C 84 % 1014,6 hPa 0,0 l/m 0 min 0 min 139 W/m 3,2 km/h (1 Bft) 97,83 %
19.03.2023 15:12 13,9 C 13,9 C 8,3 C 84 % 1014,6 hPa 0,0 l/m 0 min 0 min 152 W/m 6,4 km/h (2 Bft) 97,87 %
19.03.2023 15:14 13,9 C 13,9 C 8,3 C 84 % 1014,6 hPa 0,0 l/m 0 min 0 min 160 W/m 3,2 km/h (1 Bft) 98,21 %
19.03.2023 15:16 13,9 C 13,9 C 8,9 C 84 % 1014,6 hPa 0,0 l/m 0 min 0 min 160 W/m 3,2 km/h (1 Bft) 97,96 %
19.03.2023 15:18 13,9 C 13,9 C 8,9 C 84 % 1014,6 hPa 0,0 l/m 0 min 0 min 160 W/m 6,4 km/h (2 Bft) 97,22 %
19.03.2023 15:20 13,9 C 13,9 C 8,9 C 84 % 1014,6 hPa 0,0 l/m 0 min 0 min 162 W/m 3,2 km/h (1 Bft) 96,36 %
19.03.2023 15:22 13,9 C 13,9 C 9,4 C 84 % 1014,6 hPa 0,0 l/m 0 min 0 min 162 W/m 3,2 km/h (1 Bft) 100,00 %
19.03.2023 15:24 13,9 C 13,9 C 9,4 C 84 % 1014,6 hPa 0,0 l/m 0 min 0 min 160 W/m 3,2 km/h (1 Bft) 96,00 %
19.03.2023 15:26 13,9 C 13,9 C 9,4 C 84 % 1014,6 hPa 0,0 l/m 0 min 0 min 158 W/m 3,2 km/h (1 Bft) 97,87 %
19.03.2023 15:28 13,9 C 14,4 C 9,4 C 84 % 1014,6 hPa 0,0 l/m 0 min 0 min 157 W/m 3,2 km/h (1 Bft) 95,74 %
19.03.2023 15:30 13,9 C 14,4 C 9,4 C 84 % 1014,6 hPa 0,0 l/m 0 min 0 min 159 W/m 3,2 km/h (1 Bft) 97,83 %
19.03.2023 15:32 13,9 C 14,4 C 9,4 C 84 % 1014,6 hPa 0,0 l/m 0 min 0 min 164 W/m 3,2 km/h (1 Bft) 95,74 %
19.03.2023 15:34 13,9 C 14,4 C 10,0 C 83 % 1014,5 hPa 0,0 l/m 0 min 0 min 171 W/m 3,2 km/h (1 Bft) 95,74 %
19.03.2023 15:36 14,0 C 14,4 C 10,0 C 83 % 1014,6 hPa 0,0 l/m 0 min 0 min 176 W/m 3,2 km/h (1 Bft) 95,74 %
19.03.2023 15:38 14,0 C 14,4 C 10,0 C 83 % 1014,6 hPa 0,0 l/m 0 min 0 min 176 W/m 3,2 km/h (1 Bft) 95,74 %
19.03.2023 15:40 14,1 C 14,4 C 10,0 C 83 % 1014,6 hPa 0,0 l/m 0 min 0 min 162 W/m 3,2 km/h (1 Bft) 93,62 %
19.03.2023 15:42 14,1 C 14,4 C 10,0 C 83 % 1014,7 hPa 0,0 l/m 0 min 0 min 141 W/m 3,2 km/h (1 Bft) 95,65 %
19.03.2023 15:44 14,1 C 14,4 C 10,0 C 84 % 1014,6 hPa 0,0 l/m 0 min 0 min 115 W/m 6,4 km/h (2 Bft) 95,74 %
19.03.2023 15:46 14,2 C 13,9 C 10,0 C 84 % 1014,7 hPa 0,0 l/m 0 min 0 min 97 W/m 6,4 km/h (2 Bft) 93,62 %
19.03.2023 15:48 14,2 C 13,9 C 10,0 C 83 % 1014,6 hPa 0,0 l/m 0 min 0 min 81 W/m 3,2 km/h (1 Bft) 95,74 %
19.03.2023 15:50 14,2 C 13,9 C 9,4 C 84 % 1014,7 hPa 0,0 l/m 0 min 0 min 76 W/m 6,4 km/h (2 Bft) 93,62 %
19.03.2023 15:52 14,2 C 13,9 C 9,4 C 83 % 1014,7 hPa 0,0 l/m 0 min 0 min 76 W/m 3,2 km/h (1 Bft) 95,74 %
19.03.2023 15:54 14,2 C 13,9 C 9,4 C 84 % 1014,6 hPa 0,0 l/m 0 min 0 min 78 W/m 6,4 km/h (2 Bft) 93,62 %
19.03.2023 15:56 14,2 C 13,9 C 9,4 C 83 % 1014,6 hPa 0,0 l/m 0 min 0 min 82 W/m 0,0 km/h (0 Bft) 95,65 %
19.03.2023 15:58 14,2 C 13,9 C 9,4 C 83 % 1014,6 hPa 0,0 l/m 0 min 0 min 86 W/m 0,0 km/h (0 Bft) 95,74 %
19.03.2023 16:00 14,2 C 13,9 C 9,4 C 83 % 1014,7 hPa 0,0 l/m 0 min 0 min 88 W/m 0,0 km/h (0 Bft) 95,74 %
19.03.2023 16:02 14,1 C 13,9 C 9,4 C 83 % 1014,7 hPa 0,0 l/m 0 min 0 min 86 W/m 0,0 km/h (0 Bft) 93,62 %
19.03.2023 16:04 14,1 C 13,9 C 9,4 C 83 % 1014,7 hPa 0,0 l/m 0 min 0 min 84 W/m 6,4 km/h (2 Bft) 97,87 %
19.03.2023 16:06 14,1 C 13,9 C 9,4 C 82 % 1014,8 hPa 0,0 l/m 0 min 0 min 84 W/m 3,2 km/h (1 Bft) 97,87 %
19.03.2023 16:08 14,1 C 13,9 C 9,4 C 82 % 1014,8 hPa 0,0 l/m 0 min 0 min 85 W/m 0,0 km/h (0 Bft) 97,87 %
19.03.2023 16:10 14,1 C 13,9 C 9,4 C 83 % 1014,7 hPa 0,0 l/m 0 min 0 min 88 W/m 0,0 km/h (0 Bft) 100,00 %
19.03.2023 16:12 14,1 C 13,9 C 9,4 C 83 % 1014,7 hPa 0,0 l/m 0 min 0 min 92 W/m 3,2 km/h (1 Bft) 97,87 %
19.03.2023 16:14 14,1 C 13,9 C 9,4 C 82 % 1014,8 hPa 0,0 l/m 0 min 0 min 98 W/m 3,2 km/h (1 Bft) 97,87 %
19.03.2023 16:16 14,1 C 13,9 C 9,4 C 82 % 1014,7 hPa 0,0 l/m 0 min 0 min 103 W/m 3,2 km/h (1 Bft) 95,74 %
19.03.2023 16:18 14,1 C 13,9 C 9,4 C 83 % 1014,7 hPa 0,0 l/m 0 min 0 min 107 W/m 3,2 km/h (1 Bft) 95,74 %
19.03.2023 16:20 14,1 C 13,9 C 9,4 C 83 % 1014,7 hPa 0,0 l/m 0 min 0 min 109 W/m 6,4 km/h (2 Bft) 97,87 %
19.03.2023 16:22 14,2 C 14,4 C 9,4 C 83 % 1014,7 hPa 0,0 l/m 0 min 0 min 109 W/m 3,2 km/h (1 Bft) 95,65 %
19.03.2023 16:24 14,2 C 14,4 C 9,4 C 83 % 1014,7 hPa 0,0 l/m 0 min 0 min 109 W/m 3,2 km/h (1 Bft) 97,87 %
19.03.2023 16:26 14,2 C 14,4 C 9,4 C 83 % 1014,7 hPa 0,0 l/m 0 min 0 min 113 W/m 6,4 km/h (2 Bft) 95,74 %
19.03.2023 16:28 14,2 C 14,4 C 9,4 C 83 % 1014,7 hPa 0,0 l/m 0 min 0 min 117 W/m 3,2 km/h (1 Bft) 97,87 %
19.03.2023 16:30 14,3 C 14,4 C 9,4 C 84 % 1014,7 hPa 0,0 l/m 0 min 0 min 122 W/m 3,2 km/h (1 Bft) 97,87 %
19.03.2023 16:32 14,3 C 14,4 C 10,0 C 84 % 1014,7 hPa 0,0 l/m 0 min 0 min 123 W/m 0,0 km/h (0 Bft) 97,87 %
19.03.2023 16:34 14,3 C 14,4 C 10,0 C 84 % 1014,7 hPa 0,0 l/m 0 min 0 min 121 W/m 0,0 km/h (0 Bft) 95,74 %
19.03.2023 16:36 14,3 C 14,4 C 10,0 C 84 % 1014,7 hPa 0,0 l/m 0 min 0 min 114 W/m 3,2 km/h (1 Bft) 97,83 %
19.03.2023 16:38 14,3 C 14,4 C 10,0 C 84 % 1014,7 hPa 0,0 l/m 0 min 0 min 107 W/m 0,0 km/h (0 Bft) 95,74 %
19.03.2023 16:40 14,3 C 14,4 C 10,0 C 84 % 1014,7 hPa 0,0 l/m 0 min 0 min 97 W/m 0,0 km/h (0 Bft) 97,87 %
19.03.2023 16:42 14,3 C 14,4 C 10,0 C 83 % 1014,8 hPa 0,0 l/m 0 min 0 min 90 W/m 0,0 km/h (0 Bft) 95,74 %
19.03.2023 16:44 14,3 C 14,4 C 9,4 C 83 % 1014,8 hPa 0,0 l/m 0 min 0 min 84 W/m 3,2 km/h (1 Bft) 93,62 %
19.03.2023 16:46 14,3 C 13,9 C 9,4 C 83 % 1014,8 hPa 0,0 l/m 0 min 0 min 81 W/m 3,2 km/h (1 Bft) 97,87 %
19.03.2023 16:48 14,3 C 13,9 C 9,4 C 83 % 1014,8 hPa 0,0 l/m 0 min 0 min 78 W/m 9,7 km/h (2 Bft) 97,83 %
19.03.2023 16:50 14,3 C 13,9 C 9,4 C 82 % 1014,9 hPa 0,0 l/m 0 min 0 min 72 W/m 3,2 km/h (1 Bft) 93,62 %
19.03.2023 16:52 14,3 C 13,9 C 9,4 C 81 % 1014,9 hPa 0,0 l/m 0 min 0 min 63 W/m 9,7 km/h (2 Bft) 95,74 %
19.03.2023 16:54 14,3 C 13,9 C 9,4 C 81 % 1014,9 hPa 0,0 l/m 0 min 0 min 54 W/m 9,7 km/h (2 Bft) 97,87 %
19.03.2023 16:56 14,3 C 13,9 C 9,4 C 81 % 1015,0 hPa 0,0 l/m 0 min 0 min 50 W/m 9,7 km/h (2 Bft) 100,00 %
19.03.2023 16:58 14,3 C 13,9 C 9,4 C 81 % 1015,0 hPa 0,0 l/m 0 min 0 min 47 W/m 6,4 km/h (2 Bft) 100,00 %
19.03.2023 17:00 14,3 C 13,3 C 9,4 C 80 % 1015,0 hPa 0,0 l/m 0 min 0 min 44 W/m 6,4 km/h (2 Bft) 100,00 %
19.03.2023 17:02 14,2 C 13,3 C 9,4 C 80 % 1015,1 hPa 0,0 l/m 0 min 0 min 46 W/m 6,4 km/h (2 Bft) 100,00 %
19.03.2023 17:04 14,2 C 13,3 C 9,4 C 80 % 1015,1 hPa 0,0 l/m 0 min 0 min 48 W/m 3,2 km/h (1 Bft) 100,00 %
19.03.2023 17:06 14,2 C 13,3 C 9,4 C 80 % 1015,1 hPa 0,0 l/m 0 min 0 min 51 W/m 3,2 km/h (1 Bft) 100,00 %
19.03.2023 17:08 14,2 C 13,3 C 9,4 C 80 % 1015,1 hPa 0,0 l/m 0 min 0 min 51 W/m 0,0 km/h (0 Bft) 100,00 %
19.03.2023 17:10 14,2 C 13,3 C 9,4 C 80 % 1015,1 hPa 0,0 l/m 0 min 0 min 53 W/m 3,2 km/h (1 Bft) 100,00 %
19.03.2023 17:12 14,2 C 13,3 C 9,4 C 80 % 1015,1 hPa 0,0 l/m 0 min 0 min 54 W/m 3,2 km/h (1 Bft) 95,74 %
19.03.2023 17:14 14,2 C 13,3 C 9,4 C 81 % 1015,1 hPa 0,0 l/m 0 min 0 min 56 W/m 3,2 km/h (1 Bft) 97,87 %
19.03.2023 17:16 14,2 C 13,3 C 9,4 C 81 % 1015,1 hPa 0,0 l/m 0 min 0 min 59 W/m 3,2 km/h (1 Bft) 100,00 %
19.03.2023 17:18 14,1 C 13,3 C 9,4 C 81 % 1015,1 hPa 0,0 l/m 0 min 0 min 60 W/m 6,4 km/h (2 Bft) 100,00 %
19.03.2023 17:20 14,1 C 13,3 C 9,4 C 80 % 1015,1 hPa 0,0 l/m 0 min 0 min 58 W/m 6,4 km/h (2 Bft) 100,00 %
19.03.2023 17:22 14,1 C 13,3 C 9,4 C 80 % 1015,1 hPa 0,0 l/m 0 min 0 min 58 W/m 3,2 km/h (1 Bft) 97,87 %
19.03.2023 17:24 14,1 C 13,3 C 9,4 C 80 % 1015,2 hPa 0,0 l/m 0 min 0 min 58 W/m 0,0 km/h (0 Bft) 97,87 %
19.03.2023 17:26 14,1 C 13,3 C 9,4 C 80 % 1015,2 hPa 0,0 l/m 0 min 0 min 61 W/m 3,2 km/h (1 Bft) 100,00 %
19.03.2023 17:28 14,1 C 13,3 C 9,4 C 80 % 1015,2 hPa 0,0 l/m 0 min 0 min 64 W/m 0,0 km/h (0 Bft) 100,00 %
19.03.2023 17:30 14,1 C 13,3 C 9,4 C 80 % 1015,2 hPa 0,0 l/m 0 min 0 min 65 W/m 3,2 km/h (1 Bft) 100,00 %
19.03.2023 17:32 14,1 C 13,3 C 9,4 C 80 % 1015,2 hPa 0,0 l/m 0 min 0 min 61 W/m 3,2 km/h (1 Bft) 93,62 %
19.03.2023 17:34 14,1 C 13,3 C 9,4 C 80 % 1015,2 hPa 0,0 l/m 0 min 0 min 57 W/m 0,0 km/h (0 Bft) 95,74 %
19.03.2023 17:36 14,1 C 13,3 C 8,9 C 80 % 1015,2 hPa 0,0 l/m 0 min 0 min 54 W/m 0,0 km/h (0 Bft) 95,74 %
19.03.2023 17:38 14,1 C 13,3 C 8,9 C 80 % 1015,3 hPa 0,0 l/m 0 min 0 min 53 W/m 3,2 km/h (1 Bft) 97,87 %
19.03.2023 17:40 14,1 C 13,3 C 8,9 C 80 % 1015,2 hPa 0,0 l/m 0 min 0 min 52 W/m 3,2 km/h (1 Bft) 95,74 %
19.03.2023 17:42 14,1 C 13,3 C 8,9 C 80 % 1015,3 hPa 0,0 l/m 0 min 0 min 48 W/m 0,0 km/h (0 Bft) 93,48 %
19.03.2023 17:44 14,1 C 13,3 C 8,9 C 80 % 1015,3 hPa 0,0 l/m 0 min 0 min 46 W/m 0,0 km/h (0 Bft) 97,87 %
19.03.2023 17:46 14,1 C 13,3 C 8,9 C 80 % 1015,4 hPa 0,0 l/m 0 min 0 min 45 W/m 0,0 km/h (0 Bft) 93,62 %
19.03.2023 17:48 14,0 C 13,3 C 8,9 C 80 % 1015,4 hPa 0,0 l/m 0 min 0 min 48 W/m 3,2 km/h (1 Bft) 95,74 %
19.03.2023 17:50 14,0 C 13,3 C 8,9 C 80 % 1015,4 hPa 0,0 l/m 0 min 0 min 50 W/m 3,2 km/h (1 Bft) 97,87 %
19.03.2023 17:52 14,0 C 13,3 C 8,9 C 80 % 1015,4 hPa 0,0 l/m 0 min 0 min 45 W/m 0,0 km/h (0 Bft) 97,87 %
19.03.2023 17:54 14,0 C 13,3 C 8,9 C 80 % 1015,4 hPa 0,0 l/m 0 min 0 min 37 W/m 0,0 km/h (0 Bft) 97,87 %
19.03.2023 17:56 14,0 C 13,3 C 8,9 C 80 % 1015,5 hPa 0,0 l/m 0 min 0 min 32 W/m 3,2 km/h (1 Bft) 95,65 %
19.03.2023 17:58 14,0 C 13,3 C 8,9 C 80 % 1015,6 hPa 0,0 l/m 0 min 0 min 27 W/m 3,2 km/h (1 Bft) 93,62 %
19.03.2023 18:00 14,0 C 12,8 C 8,9 C 80 % 1015,6 hPa 0,0 l/m 0 min 0 min 25 W/m 3,2 km/h (1 Bft) 97,87 %
19.03.2023 18:02 14,0 C 12,8 C 8,9 C 81 % 1015,7 hPa 0,0 l/m 0 min 0 min 22 W/m 6,4 km/h (2 Bft) 97,87 %
19.03.2023 18:04 13,9 C 12,8 C 8,9 C 81 % 1015,7 hPa 0,0 l/m 0 min 0 min 18 W/m 6,4 km/h (2 Bft) 97,87 %
19.03.2023 18:07 13,9 C 12,8 C 8,9 C 80 % 1015,8 hPa 0,0 l/m 0 min 0 min 15 W/m 6,4 km/h (2 Bft) 95,77 %
19.03.2023 18:08 13,9 C 12,8 C 8,9 C 80 % 1015,8 hPa 0,0 l/m 0 min 0 min 14 W/m 3,2 km/h (1 Bft) 100,00 %
19.03.2023 18:12 13,8 C 12,8 C 8,9 C 80 % 1015,9 hPa 0,0 l/m 0 min 0 min 12 W/m 12,9 km/h (3 Bft) 100,00 %
19.03.2023 18:14 13,7 C 12,8 C 8,9 C 80 % 1015,9 hPa 0,0 l/m 0 min 0 min 11 W/m 6,4 km/h (2 Bft) 97,87 %
19.03.2023 18:16 13,7 C 12,2 C 8,9 C 81 % 1015,9 hPa 0,0 l/m 0 min 0 min 9 W/m 9,7 km/h (2 Bft) 97,87 %
19.03.2023 18:18 13,6 C 12,2 C 8,9 C 81 % 1015,9 hPa 0,0 l/m 0 min 0 min 8 W/m 3,2 km/h (1 Bft) 97,83 %
19.03.2023 18:20 13,6 C 12,2 C 8,9 C 81 % 1016,0 hPa 0,0 l/m 0 min 0 min 7 W/m 9,7 km/h (2 Bft) 97,87 %
19.03.2023 18:22 13,6 C 12,2 C 8,9 C 82 % 1016,0 hPa 0,0 l/m 0 min 0 min 7 W/m 3,2 km/h (1 Bft) 97,87 %
19.03.2023 18:24 13,5 C 12,2 C 8,3 C 82 % 1016,1 hPa 0,0 l/m 0 min 0 min 7 W/m 3,2 km/h (1 Bft) 97,87 %
19.03.2023 18:26 13,5 C 12,2 C 8,3 C 82 % 1016,1 hPa 0,0 l/m 0 min 0 min 7 W/m 6,4 km/h (2 Bft) 97,87 %
19.03.2023 18:28 13,5 C 12,2 C 8,3 C 82 % 1016,1 hPa 0,0 l/m 0 min 0 min 7 W/m 3,2 km/h (1 Bft) 95,74 %
19.03.2023 18:30 13,4 C 12,2 C 8,3 C 82 % 1016,1 hPa 0,0 l/m 0 min 0 min 6 W/m 3,2 km/h (1 Bft) 97,83 %
19.03.2023 18:32 13,4 C 12,2 C 8,3 C 83 % 1016,1 hPa 0,0 l/m 0 min 0 min 5 W/m 3,2 km/h (1 Bft) 97,87 %
19.03.2023 18:34 13,3 C 12,2 C 8,3 C 83 % 1016,2 hPa 0,0 l/m 0 min 0 min 2 W/m 3,2 km/h (1 Bft) 97,87 %
19.03.2023 18:36 13,3 C 12,2 C 8,3 C 83 % 1016,2 hPa 0,0 l/m 0 min 0 min 0 W/m 3,2 km/h (1 Bft) 97,87 %
19.03.2023 18:38 13,3 C 12,2 C 8,3 C 83 % 1016,2 hPa 0,0 l/m 0 min 0 min 0 W/m 3,2 km/h (1 Bft) 97,87 %
19.03.2023 18:40 13,2 C 12,2 C 8,3 C 84 % 1016,3 hPa 0,0 l/m 0 min 0 min 0 W/m 6,4 km/h (2 Bft) 97,87 %
19.03.2023 18:42 13,2 C 11,7 C 8,3 C 84 % 1016,3 hPa 0,0 l/m 0 min 0 min 0 W/m 3,2 km/h (1 Bft) 97,87 %
19.03.2023 18:44 13,2 C 11,7 C 8,3 C 84 % 1016,3 hPa 0,0 l/m 0 min 0 min 0 W/m 3,2 km/h (1 Bft) 97,83 %
19.03.2023 18:46 13,1 C 11,7 C 8,3 C 84 % 1016,3 hPa 0,0 l/m 0 min 0 min 0 W/m 0,0 km/h (0 Bft) 95,74 %
19.03.2023 18:48 13,1 C 11,7 C 8,3 C 84 % 1016,3 hPa 0,0 l/m 0 min 0 min 0 W/m 0,0 km/h (0 Bft) 97,87 %
19.03.2023 18:50 13,1 C 11,7 C 8,3 C 84 % 1016,2 hPa 0,0 l/m 0 min 0 min 0 W/m 0,0 km/h (0 Bft) 93,62 %
19.03.2023 18:52 13,1 C 11,7 C 7,8 C 84 % 1016,3 hPa 0,0 l/m 0 min 0 min 0 W/m 0,0 km/h (0 Bft) 95,74 %
19.03.2023 18:54 13,0 C 11,7 C 7,8 C 84 % 1016,3 hPa 0,0 l/m 0 min 0 min 0 W/m 0,0 km/h (0 Bft) 93,62 %
19.03.2023 18:56 13,0 C 11,7 C 7,8 C 84 % 1016,3 hPa 0,0 l/m 0 min 0 min 0 W/m 0,0 km/h (0 Bft) 93,48 %
19.03.2023 18:58 13,0 C 11,7 C 7,8 C 84 % 1016,4 hPa 0,0 l/m 0 min 0 min 0 W/m 0,0 km/h (0 Bft) 95,74 %
19.03.2023 19:00 12,9 C 11,7 C 7,8 C 85 % 1016,4 hPa 0,0 l/m 0 min 0 min 0 W/m 0,0 km/h (0 Bft) 95,74 %
19.03.2023 19:02 12,9 C 11,7 C 7,8 C 85 % 1016,4 hPa 0,0 l/m 0 min 0 min 0 W/m 0,0 km/h (0 Bft) 95,74 %
19.03.2023 19:04 12,9 C 11,7 C 7,8 C 85 % 1016,4 hPa 0,0 l/m 0 min 0 min 0 W/m 0,0 km/h (0 Bft) 97,87 %
19.03.2023 19:06 12,9 C 11,7 C 7,8 C 85 % 1016,5 hPa 0,0 l/m 0 min 0 min 0 W/m 0,0 km/h (0 Bft) 96,15 %
19.03.2023 19:08 12,8 C 11,7 C 7,8 C 85 % 1016,5 hPa 0,0 l/m 0 min 0 min 0 W/m 0,0 km/h (0 Bft) 97,62 %
19.03.2023 19:10 12,8 C 11,7 C 7,8 C 85 % 1016,5 hPa 0,0 l/m 0 min 0 min 0 W/m 0,0 km/h (0 Bft) 97,83 %
19.03.2023 19:12 12,8 C 11,1 C 7,8 C 85 % 1016,6 hPa 0,0 l/m 0 min 0 min 0 W/m 0,0 km/h (0 Bft) 95,74 %
19.03.2023 19:14 12,8 C 11,1 C 7,8 C 85 % 1016,6 hPa 0,0 l/m 0 min 0 min 0 W/m 0,0 km/h (0 Bft) 97,87 %
19.03.2023 19:16 12,7 C 11,1 C 7,2 C 85 % 1016,6 hPa 0,0 l/m 0 min 0 min 0 W/m 0,0 km/h (0 Bft) 97,87 %
19.03.2023 19:18 12,7 C 11,1 C 7,2 C 85 % 1016,7 hPa 0,0 l/m 0 min 0 min 0 W/m 0,0 km/h (0 Bft) 97,87 %
19.03.2023 19:20 12,7 C 11,1 C 7,2 C 86 % 1016,7 hPa 0,0 l/m 0 min 0 min 0 W/m 0,0 km/h (0 Bft) 97,87 %
19.03.2023 19:22 12,7 C 11,1 C 7,2 C 86 % 1016,7 hPa 0,0 l/m 0 min 0 min 0 W/m 0,0 km/h (0 Bft) 97,87 %
19.03.2023 19:24 12,7 C 11,1 C 7,2 C 86 % 1016,6 hPa 0,0 l/m 0 min 0 min 0 W/m 0,0 km/h (0 Bft) 95,65 %
19.03.2023 19:26 12,6 C 11,1 C 7,2 C 86 % 1016,7 hPa 0,0 l/m 0 min 0 min 0 W/m 0,0 km/h (0 Bft) 95,74 %
19.03.2023 19:28 12,6 C 11,1 C 7,2 C 86 % 1016,7 hPa 0,0 l/m 0 min 0 min 0 W/m 0,0 km/h (0 Bft) 97,87 %
19.03.2023 19:30 12,6 C 11,1 C 7,2 C 86 % 1016,7 hPa 0,0 l/m 0 min 0 min 0 W/m 0,0 km/h (0 Bft) 95,74 %
19.03.2023 19:32 12,6 C 11,1 C 7,2 C 86 % 1016,8 hPa 0,0 l/m 0 min 0 min 0 W/m 0,0 km/h (0 Bft) 93,62 %
19.03.2023 19:34 12,5 C 11,1 C 7,2 C 86 % 1016,8 hPa 0,0 l/m 0 min 0 min 0 W/m 0,0 km/h (0 Bft) 95,74 %
19.03.2023 19:36 12,4 C 11,1 C 7,2 C 86 % 1016,9 hPa 0,0 l/m 0 min 0 min 0 W/m 0,0 km/h (0 Bft) 95,65 %
19.03.2023 19:38 12,4 C 11,1 C 7,2 C 86 % 1016,9 hPa 0,0 l/m 0 min 0 min 0 W/m 0,0 km/h (0 Bft) 95,74 %
19.03.2023 19:40 12,4 C 11,1 C 7,2 C 86 % 1016,9 hPa 0,0 l/m 0 min 0 min 0 W/m 0,0 km/h (0 Bft) 95,74 %
19.03.2023 19:42 12,3 C 11,1 C 7,2 C 86 % 1016,9 hPa 0,0 l/m 0 min 0 min 0 W/m 0,0 km/h (0 Bft) 95,74 %
19.03.2023 19:44 12,3 C 11,1 C 7,2 C 86 % 1017,0 hPa 0,0 l/m 0 min 0 min 0 W/m 3,2 km/h (1 Bft) 97,87 %
19.03.2023 19:46 12,3 C 11,1 C 7,2 C 86 % 1017,1 hPa 0,0 l/m 0 min 0 min 0 W/m 3,2 km/h (1 Bft) 98,15 %
19.03.2023 19:48 12,2 C 11,1 C 7,2 C 86 % 1017,0 hPa 0,0 l/m 0 min 0 min 0 W/m 3,2 km/h (1 Bft) 95,74 %
19.03.2023 19:50 12,2 C 11,1 C 7,2 C 86 % 1017,1 hPa 0,0 l/m 0 min 0 min 0 W/m 3,2 km/h (1 Bft) 95,74 %
19.03.2023 19:52 12,2 C 11,1 C 7,8 C 87 % 1017,1 hPa 0,0 l/m 0 min 0 min 0 W/m 6,4 km/h (2 Bft) 95,74 %
19.03.2023 19:54 12,1 C 11,1 C 7,8 C 87 % 1017,2 hPa 0,0 l/m 0 min 0 min 0 W/m 6,4 km/h (2 Bft) 97,87 %
19.03.2023 19:56 12,1 C 11,1 C 7,8 C 87 % 1017,2 hPa 0,0 l/m 0 min 0 min 0 W/m 6,4 km/h (2 Bft) 95,74 %
19.03.2023 19:58 12,1 C 11,1 C 7,8 C 87 % 1017,1 hPa 0,0 l/m 0 min 0 min 0 W/m 12,9 km/h (3 Bft) 97,87 %
19.03.2023 20:00 12,1 C 11,1 C 7,8 C 87 % 1017,2 hPa 0,0 l/m 0 min 0 min 0 W/m 12,9 km/h (3 Bft) 95,65 %
19.03.2023 20:02 12,1 C 11,1 C 7,8 C 87 % 1017,2 hPa 0,0 l/m 0 min 0 min 0 W/m 12,9 km/h (3 Bft) 97,87 %
19.03.2023 20:04 12,1 C 11,1 C 7,8 C 88 % 1017,3 hPa 0,0 l/m 0 min 0 min 0 W/m 12,9 km/h (3 Bft) 97,44 %
19.03.2023 20:06 12,1 C 11,1 C 7,8 C 88 % 1017,4 hPa 0,0 l/m 0 min 0 min 0 W/m 12,9 km/h (3 Bft) 100,00 %
19.03.2023 20:08 12,1 C 11,1 C 7,8 C 88 % 1017,4 hPa 0,0 l/m 0 min 0 min 0 W/m 9,7 km/h (2 Bft) 97,14 %
19.03.2023 20:10 12,1 C 11,1 C 7,8 C 88 % 1017,4 hPa 0,0 l/m 0 min 0 min 0 W/m 12,9 km/h (3 Bft) 100,00 %
19.03.2023 20:12 12,1 C 11,1 C 7,8 C 89 % 1017,4 hPa 0,0 l/m 0 min 0 min 0 W/m 9,7 km/h (2 Bft) 100,00 %
19.03.2023 20:14 12,0 C 11,1 C 7,2 C 89 % 1017,5 hPa 0,0 l/m 0 min 0 min 0 W/m 19,3 km/h (3 Bft) 100,00 %
19.03.2023 20:16 12,0 C 11,1 C 7,2 C 89 % 1017,5 hPa 0,0 l/m 0 min 0 min 0 W/m 19,3 km/h (3 Bft) 100,00 %
19.03.2023 20:18 11,9 C 11,1 C 7,2 C 90 % 1017,5 hPa 0,0 l/m 0 min 0 min 0 W/m 12,9 km/h (3 Bft) 100,00 %
19.03.2023 20:20 11,9 C 11,1 C 7,2 C 90 % 1017,5 hPa 0,0 l/m 0 min 0 min 0 W/m 12,9 km/h (3 Bft) 100,00 %
19.03.2023 20:22 11,9 C 11,1 C 7,2 C 90 % 1017,6 hPa 0,0 l/m 0 min 0 min 0 W/m 19,3 km/h (3 Bft) 100,00 %
19.03.2023 20:24 11,8 C 10,6 C 7,2 C 90 % 1017,7 hPa 0,0 l/m 0 min 0 min 0 W/m 9,7 km/h (2 Bft) 100,00 %
19.03.2023 20:26 11,8 C 10,6 C 7,2 C 90 % 1017,7 hPa 0,0 l/m 0 min 0 min 0 W/m 9,7 km/h (2 Bft) 100,00 %
19.03.2023 20:28 11,8 C 10,6 C 7,2 C 91 % 1017,7 hPa 0,0 l/m 0 min 2 min 0 W/m 16,1 km/h (3 Bft) 100,00 %
19.03.2023 20:30 11,7 C 10,6 C 7,2 C 91 % 1017,8 hPa 0,0 l/m 0 min 2 min 0 W/m 12,9 km/h (3 Bft) 100,00 %
19.03.2023 20:32 11,7 C 10,6 C 6,7 C 91 % 1017,8 hPa 0,0 l/m 0 min 2 min 0 W/m 12,9 km/h (3 Bft) 100,00 %
19.03.2023 20:34 11,7 C 10,6 C 6,7 C 91 % 1017,8 hPa 0,4 l/m 0 min 2 min 0 W/m 6,4 km/h (2 Bft) 100,00 %
19.03.2023 20:36 11,6 C 10,6 C 6,7 C 91 % 1017,9 hPa 0,2 l/m 0 min 2 min 0 W/m 9,7 km/h (2 Bft) 100,00 %
19.03.2023 20:38 11,6 C 10,0 C 6,7 C 92 % 1017,9 hPa 0,2 l/m 0 min 2 min 0 W/m 6,4 km/h (2 Bft) 100,00 %
19.03.2023 20:40 11,6 C 10,0 C 6,7 C 92 % 1018,0 hPa 0,0 l/m 0 min 2 min 0 W/m 19,3 km/h (3 Bft) 100,00 %
19.03.2023 20:42 11,5 C 10,0 C 6,1 C 92 % 1018,0 hPa 0,2 l/m 0 min 2 min 0 W/m 12,9 km/h (3 Bft) 97,87 %
19.03.2023 20:44 11,4 C 10,0 C 6,1 C 92 % 1018,1 hPa 0,0 l/m 0 min 2 min 0 W/m 6,4 km/h (2 Bft) 97,83 %
19.03.2023 20:46 11,4 C 10,0 C 6,1 C 92 % 1018,2 hPa 0,0 l/m 0 min 2 min 0 W/m 12,9 km/h (3 Bft) 100,00 %
19.03.2023 20:48 11,3 C 10,0 C 6,1 C 92 % 1018,2 hPa 0,0 l/m 0 min 2 min 0 W/m 9,7 km/h (2 Bft) 100,00 %
19.03.2023 20:50 11,3 C 10,0 C 6,1 C 93 % 1018,1 hPa 0,2 l/m 0 min 2 min 0 W/m 3,2 km/h (1 Bft) 100,00 %
19.03.2023 20:52 11,3 C 10,0 C 6,1 C 93 % 1018,2 hPa 0,0 l/m 0 min 2 min 0 W/m 3,2 km/h (1 Bft) 97,87 %
19.03.2023 20:54 11,2 C 10,0 C 6,1 C 93 % 1018,2 hPa 0,0 l/m 0 min 2 min 0 W/m 6,4 km/h (2 Bft) 100,00 %
19.03.2023 20:56 11,2 C 10,0 C 6,1 C 93 % 1018,3 hPa 0,0 l/m 0 min 2 min 0 W/m 6,4 km/h (2 Bft) 97,87 %
19.03.2023 20:58 11,2 C 10,0 C 6,1 C 93 % 1018,3 hPa 0,0 l/m 0 min 2 min 0 W/m 6,4 km/h (2 Bft) 97,87 %
19.03.2023 21:00 11,2 C 10,0 C 6,1 C 93 % 1018,4 hPa 0,2 l/m 0 min 2 min 0 W/m 9,7 km/h (2 Bft) 91,49 %
19.03.2023 21:02 11,2 C 10,0 C 6,1 C 93 % 1018,4 hPa 0,0 l/m 0 min 0 min 0 W/m 3,2 km/h (1 Bft) 93,62 %
19.03.2023 21:04 11,1 C 10,0 C 6,1 C 93 % 1018,4 hPa 0,0 l/m 0 min 0 min 0 W/m 12,9 km/h (3 Bft) 97,87 %
19.03.2023 21:06 11,1 C 10,0 C 6,1 C 94 % 1018,4 hPa 0,0 l/m 0 min 0 min 0 W/m 6,4 km/h (2 Bft) 96,55 %
19.03.2023 21:08 11,1 C 10,0 C 6,1 C 94 % 1018,4 hPa 0,0 l/m 0 min 0 min 0 W/m 16,1 km/h (3 Bft) 97,22 %
19.03.2023 21:10 10,9 C 10,0 C 6,1 C 94 % 1018,5 hPa 0,0 l/m 0 min 0 min 0 W/m 16,1 km/h (3 Bft) 97,83 %
19.03.2023 21:12 10,9 C 10,0 C 6,1 C 94 % 1018,5 hPa 0,0 l/m 0 min 0 min 0 W/m 16,1 km/h (3 Bft) 97,87 %
19.03.2023 21:14 10,8 C 10,0 C 6,1 C 94 % 1018,5 hPa 0,0 l/m 0 min 0 min 0 W/m 12,9 km/h (3 Bft) 95,74 %
19.03.2023 21:16 10,7 C 9,4 C 5,6 C 94 % 1018,5 hPa 0,0 l/m 0 min 0 min 0 W/m 22,5 km/h (4 Bft) 97,87 %
19.03.2023 21:18 10,7 C 9,4 C 5,6 C 94 % 1018,5 hPa 0,0 l/m 0 min 0 min 0 W/m 16,1 km/h (3 Bft) 93,88 %
19.03.2023 21:20 10,6 C 9,4 C 5,6 C 94 % 1018,5 hPa 0,0 l/m 0 min 0 min 0 W/m 12,9 km/h (3 Bft) 97,87 %
19.03.2023 21:22 10,6 C 9,4 C 5,6 C 94 % 1018,5 hPa 0,0 l/m 0 min 0 min 0 W/m 12,9 km/h (3 Bft) 97,87 %
19.03.2023 21:24 10,4 C 9,4 C 5,6 C 94 % 1018,6 hPa 0,0 l/m 0 min 0 min 0 W/m 9,7 km/h (2 Bft) 95,65 %
19.03.2023 21:26 10,4 C 9,4 C 5,6 C 94 % 1018,6 hPa 0,0 l/m 0 min 2 min 0 W/m 19,3 km/h (3 Bft) 93,62 %
19.03.2023 21:28 10,3 C 9,4 C 5,6 C 94 % 1018,6 hPa 0,0 l/m 0 min 2 min 0 W/m 12,9 km/h (3 Bft) 93,62 %
19.03.2023 21:30 10,3 C 9,4 C 5,6 C 94 % 1018,6 hPa 0,0 l/m 0 min 0 min 0 W/m 16,1 km/h (3 Bft) 95,74 %
19.03.2023 21:32 10,2 C 9,4 C 5,6 C 94 % 1018,6 hPa 0,0 l/m 0 min 0 min 0 W/m 9,7 km/h (2 Bft) 95,74 %
19.03.2023 21:34 10,1 C 9,4 C 5,6 C 94 % 1018,6 hPa 0,0 l/m 0 min 2 min 0 W/m 12,9 km/h (3 Bft) 95,74 %
19.03.2023 21:36 10,1 C 9,4 C 5,6 C 94 % 1018,7 hPa 0,0 l/m 0 min 2 min 0 W/m 12,9 km/h (3 Bft) 93,48 %
19.03.2023 21:38 10,1 C 9,4 C 5,6 C 94 % 1018,7 hPa 0,0 l/m 0 min 0 min 0 W/m 9,7 km/h (2 Bft) 95,74 %
19.03.2023 21:40 10,1 C 8,9 C 5,0 C 94 % 1018,7 hPa 0,0 l/m 0 min 0 min 0 W/m 9,7 km/h (2 Bft) 97,87 %
19.03.2023 21:42 10,0 C 8,9 C 5,0 C 94 % 1018,7 hPa 0,0 l/m 0 min 0 min 0 W/m 9,7 km/h (2 Bft) 97,87 %
19.03.2023 21:44 9,9 C 8,9 C 5,0 C 94 % 1018,8 hPa 0,0 l/m 0 min 0 min 0 W/m 9,7 km/h (2 Bft) 100,00 %
19.03.2023 21:46 9,9 C 8,9 C 5,0 C 94 % 1018,8 hPa 0,0 l/m 0 min 0 min 0 W/m 16,1 km/h (3 Bft) 97,14 %
19.03.2023 21:48 9,9 C 8,9 C 5,0 C 94 % 1018,8 hPa 0,0 l/m 0 min 2 min 0 W/m 9,7 km/h (2 Bft) 98,11 %
19.03.2023 21:50 9,8 C 8,9 C 5,0 C 94 % 1018,9 hPa 0,0 l/m 0 min 0 min 0 W/m 12,9 km/h (3 Bft) 95,74 %
19.03.2023 21:52 9,8 C 8,9 C 5,0 C 94 % 1018,9 hPa 0,0 l/m 0 min 0 min 0 W/m 12,9 km/h (3 Bft) 93,62 %
19.03.2023 21:54 9,8 C 8,9 C 5,0 C 94 % 1018,9 hPa 0,0 l/m 0 min 0 min 0 W/m 9,7 km/h (2 Bft) 95,65 %
19.03.2023 21:56 9,8 C 8,9 C 5,0 C 94 % 1018,9 hPa 0,0 l/m 0 min 0 min 0 W/m 9,7 km/h (2 Bft) 95,83 %
19.03.2023 21:58 9,8 C 8,9 C 5,0 C 94 % 1018,9 hPa 0,0 l/m 0 min 0 min 0 W/m 9,7 km/h (2 Bft) 97,87 %
19.03.2023 22:00 9,8 C 8,9 C 5,0 C 94 % 1019,0 hPa 0,0 l/m 0 min 0 min 0 W/m 9,7 km/h (2 Bft) 97,87 %
19.03.2023 22:02 9,8 C 8,9 C 5,0 C 94 % 1019,0 hPa 0,0 l/m 0 min 0 min 0 W/m 9,7 km/h (2 Bft) 95,74 %
19.03.2023 22:04 9,8 C 8,9 C 5,0 C 94 % 1019,0 hPa 0,0 l/m 0 min 0 min 0 W/m 6,4 km/h (2 Bft) 97,87 %
19.03.2023 22:06 9,7 C 8,9 C 5,0 C 94 % 1019,0 hPa 0,0 l/m 0 min 0 min 0 W/m 9,7 km/h (2 Bft) 96,55 %
19.03.2023 22:08 9,7 C 8,9 C 5,0 C 94 % 1019,0 hPa 0,0 l/m 0 min 0 min 0 W/m 6,4 km/h (2 Bft) 97,14 %
19.03.2023 22:10 9,7 C 8,9 C 5,0 C 94 % 1019,0 hPa 0,0 l/m 0 min 0 min 0 W/m 3,2 km/h (1 Bft) 97,87 %
19.03.2023 22:12 9,7 C 8,9 C 5,0 C 94 % 1019,0 hPa 0,0 l/m 0 min 0 min 0 W/m 6,4 km/h (2 Bft) 97,87 %
19.03.2023 22:14 9,7 C 8,9 C 5,0 C 94 % 1019,1 hPa 0,0 l/m 0 min 0 min 0 W/m 6,4 km/h (2 Bft) 95,74 %
19.03.2023 22:16 9,7 C 8,9 C 5,0 C 94 % 1019,0 hPa 0,0 l/m 0 min 0 min 0 W/m 6,4 km/h (2 Bft) 97,87 %
19.03.2023 22:18 9,7 C 8,9 C 5,0 C 94 % 1019,1 hPa 0,0 l/m 0 min 0 min 0 W/m 12,9 km/h (3 Bft) 97,87 %
19.03.2023 22:20 9,7 C 8,9 C 5,0 C 94 % 1019,0 hPa 0,0 l/m 0 min 0 min 0 W/m 6,4 km/h (2 Bft) 98,00 %
19.03.2023 22:22 9,7 C 8,9 C 5,0 C 94 % 1019,0 hPa 0,0 l/m 0 min 0 min 0 W/m 9,7 km/h (2 Bft) 95,74 %
19.03.2023 22:24 9,6 C 8,9 C 5,0 C 94 % 1019,1 hPa 0,0 l/m 0 min 0 min 0 W/m 12,9 km/h (3 Bft) 95,74 %
19.03.2023 22:26 9,6 C 8,9 C 5,0 C 94 % 1019,1 hPa 0,0 l/m 0 min 0 min 0 W/m 12,9 km/h (3 Bft) 97,87 %
19.03.2023 22:28 9,5 C 8,9 C 5,0 C 94 % 1019,1 hPa 0,0 l/m 0 min 0 min 0 W/m 16,1 km/h (3 Bft) 97,87 %
19.03.2023 22:30 9,4 C 8,3 C 4,4 C 94 % 1019,1 hPa 0,0 l/m 0 min 0 min 0 W/m 12,9 km/h (3 Bft) 97,87 %
19.03.2023 22:32 9,3 C 8,3 C 4,4 C 94 % 1019,2 hPa 0,0 l/m 0 min 0 min 0 W/m 16,1 km/h (3 Bft) 97,83 %
19.03.2023 22:34 9,3 C 8,3 C 4,4 C 94 % 1019,2 hPa 0,0 l/m 0 min 0 min 0 W/m 9,7 km/h (2 Bft) 95,74 %
19.03.2023 22:36 9,2 C 8,3 C 4,4 C 94 % 1019,2 hPa 0,0 l/m 0 min 0 min 0 W/m 12,9 km/h (3 Bft) 97,87 %
19.03.2023 22:38 9,1 C 8,3 C 4,4 C 94 % 1019,2 hPa 0,0 l/m 0 min 0 min 0 W/m 16,1 km/h (3 Bft) 96,00 %
19.03.2023 22:40 9,1 C 8,3 C 4,4 C 94 % 1019,3 hPa 0,0 l/m 0 min 0 min 0 W/m 9,7 km/h (2 Bft) 100,00 %
19.03.2023 22:42 9,1 C 8,3 C 4,4 C 94 % 1019,2 hPa 0,0 l/m 0 min 0 min 0 W/m 6,4 km/h (2 Bft) 95,74 %
19.03.2023 22:44 9,1 C 8,3 C 4,4 C 94 % 1019,3 hPa 0,0 l/m 0 min 0 min 0 W/m 9,7 km/h (2 Bft) 97,87 %
19.03.2023 22:46 9,1 C 8,3 C 4,4 C 94 % 1019,3 hPa 0,0 l/m 0 min 0 min 0 W/m 9,7 km/h (2 Bft) 97,87 %
19.03.2023 22:48 9,0 C 8,3 C 4,4 C 94 % 1019,3 hPa 0,0 l/m 0 min 0 min 0 W/m 12,9 km/h (3 Bft) 100,00 %
19.03.2023 22:50 8,9 C 8,3 C 4,4 C 94 % 1019,3 hPa 0,0 l/m 0 min 0 min 0 W/m 9,7 km/h (2 Bft) 100,00 %
19.03.2023 22:52 8,9 C 8,3 C 4,4 C 94 % 1019,3 hPa 0,0 l/m 0 min 0 min 0 W/m 12,9 km/h (3 Bft) 97,87 %
19.03.2023 22:54 8,8 C 8,3 C 4,4 C 93 % 1019,4 hPa 0,0 l/m 0 min 0 min 0 W/m 9,7 km/h (2 Bft) 100,00 %
19.03.2023 22:56 8,8 C 7,8 C 4,4 C 93 % 1019,3 hPa 0,0 l/m 0 min 0 min 0 W/m 12,9 km/h (3 Bft) 100,00 %
19.03.2023 22:58 8,8 C 7,8 C 4,4 C 93 % 1019,3 hPa 0,0 l/m 0 min 0 min 0 W/m 9,7 km/h (2 Bft) 97,87 %
19.03.2023 23:00 8,8 C 7,8 C 4,4 C 93 % 1019,4 hPa 0,0 l/m 0 min 0 min 0 W/m 6,4 km/h (2 Bft) 95,74 %
19.03.2023 23:02 8,8 C 7,8 C 4,4 C 93 % 1019,4 hPa 0,0 l/m 0 min 0 min 0 W/m 12,9 km/h (3 Bft) 97,83 %
19.03.2023 23:04 8,7 C 7,8 C 4,4 C 93 % 1019,4 hPa 0,0 l/m 0 min 0 min 0 W/m 9,7 km/h (2 Bft) 100,00 %
19.03.2023 23:06 8,7 C 7,8 C 4,4 C 93 % 1019,3 hPa 0,0 l/m 0 min 0 min 0 W/m 9,7 km/h (2 Bft) 98,31 %
19.03.2023 23:08 8,7 C 7,8 C 4,4 C 93 % 1019,3 hPa 0,0 l/m 0 min 0 min 0 W/m 6,4 km/h (2 Bft) 97,14 %
19.03.2023 23:10 8,7 C 7,8 C 4,4 C 93 % 1019,4 hPa 0,0 l/m 0 min 0 min 0 W/m 9,7 km/h (2 Bft) 95,74 %
19.03.2023 23:12 8,7 C 7,8 C 4,4 C 93 % 1019,4 hPa 0,0 l/m 0 min 0 min 0 W/m 6,4 km/h (2 Bft) 95,83 %
19.03.2023 23:14 8,7 C 7,8 C 4,4 C 93 % 1019,3 hPa 0,0 l/m 0 min 0 min 0 W/m 6,4 km/h (2 Bft) 97,83 %
19.03.2023 23:16 8,7 C 7,8 C 4,4 C 93 % 1019,4 hPa 0,0 l/m 0 min 0 min 0 W/m 12,9 km/h (3 Bft) 95,74 %
19.03.2023 23:18 8,6 C 7,8 C 4,4 C 93 % 1019,4 hPa 0,0 l/m 0 min 0 min 0 W/m 6,4 km/h (2 Bft) 91,49 %
19.03.2023 23:20 8,6 C 7,8 C 4,4 C 93 % 1019,4 hPa 0,0 l/m 0 min 0 min 0 W/m 6,4 km/h (2 Bft) 95,74 %
19.03.2023 23:22 8,6 C 7,8 C 4,4 C 93 % 1019,4 hPa 0,0 l/m 0 min 0 min 0 W/m 12,9 km/h (3 Bft) 95,74 %
19.03.2023 23:24 8,6 C 7,8 C 4,4 C 93 % 1019,4 hPa 0,0 l/m 0 min 0 min 0 W/m 12,9 km/h (3 Bft) 96,36 %
19.03.2023 23:26 8,6 C 7,8 C 4,4 C 93 % 1019,3 hPa 0,0 l/m 0 min 0 min 0 W/m 9,7 km/h (2 Bft) 95,65 %
19.03.2023 23:28 8,6 C 7,8 C 4,4 C 93 % 1019,4 hPa 0,0 l/m 0 min 0 min 0 W/m 9,7 km/h (2 Bft) 95,74 %
19.03.2023 23:30 8,6 C 7,8 C 3,9 C 93 % 1019,4 hPa 0,0 l/m 0 min 0 min 0 W/m 12,9 km/h (3 Bft) 95,83 %
19.03.2023 23:32 8,6 C 7,8 C 3,9 C 93 % 1019,5 hPa 0,0 l/m 0 min 0 min 0 W/m 12,9 km/h (3 Bft) 91,49 %
19.03.2023 23:34 8,6 C 7,8 C 3,9 C 93 % 1019,4 hPa 0,0 l/m 0 min 0 min 0 W/m 12,9 km/h (3 Bft) 95,74 %
19.03.2023 23:36 8,5 C 7,8 C 3,9 C 93 % 1019,5 hPa 0,0 l/m 0 min 0 min 0 W/m 12,9 km/h (3 Bft) 95,74 %
19.03.2023 23:38 8,5 C 7,8 C 3,9 C 93 % 1019,5 hPa 0,0 l/m 0 min 0 min 0 W/m 12,9 km/h (3 Bft) 95,65 %
19.03.2023 23:40 8,5 C 7,8 C 3,9 C 92 % 1019,5 hPa 0,0 l/m 0 min 0 min 0 W/m 12,9 km/h (3 Bft) 97,44 %
19.03.2023 23:42 8,4 C 7,8 C 3,9 C 92 % 1019,5 hPa 0,0 l/m 0 min 0 min 0 W/m 6,4 km/h (2 Bft) 96,55 %
19.03.2023 23:44 8,4 C 7,8 C 3,9 C 92 % 1019,5 hPa 0,0 l/m 0 min 0 min 0 W/m 9,7 km/h (2 Bft) 97,14 %
19.03.2023 23:46 8,4 C 7,8 C 3,9 C 92 % 1019,5 hPa 0,0 l/m 0 min 0 min 0 W/m 12,9 km/h (3 Bft) 58,49 %
19.03.2023 23:48 8,4 C 7,8 C 3,9 C 92 % 1019,5 hPa 0,0 l/m 0 min 0 min 0 W/m 9,7 km/h (2 Bft) 97,14 %
19.03.2023 23:50 8,4 C 7,8 C 3,9 C 92 % 1019,5 hPa 0,0 l/m 0 min 0 min 0 W/m 12,9 km/h (3 Bft) 97,92 %
19.03.2023 23:52 8,4 C 7,8 C 3,9 C 92 % 1019,4 hPa 0,0 l/m 0 min 0 min 0 W/m 9,7 km/h (2 Bft) 97,87 %
19.03.2023 23:54 8,4 C 7,8 C 3,9 C 92 % 1019,5 hPa 0,0 l/m 0 min 0 min 0 W/m 12,9 km/h (3 Bft) 100,00 %
19.03.2023 23:56 8,4 C 7,8 C 3,9 C 92 % 1019,5 hPa 0,0 l/m 0 min 0 min 0 W/m 12,9 km/h (3 Bft) 100,00 %
19.03.2023 23:58 8,3 C 7,8 C 3,9 C 92 % 1019,5 hPa 0,0 l/m 0 min 0 min 0 W/m 9,7 km/h (2 Bft) 100,00 %
_ Min-Zeit 23:58 22:56 23:30 13:32 00:26 - - - - 01:12 04:48
Minimum _ 8,3 C 7,8 C 3,9 C 76 % 1011,5 hPa - - - - 0,0 km/h (0 Bft) 46,15 %
_ Max-Zeit 13:50 11:32 11:32 08:06 23:32 00:16 09:04 06:12 11:34 00:16 00:40
Maximum _ 14,7 C 20,6 C 13,3 C 96 % 1019,5 hPa 0,4 l/m 2 min 4 min 602 W/m 22,5 km/h
S-SW (4 Bft)
100,00 %
Durchschnitt _ 11,7 C 11,2 C 7,0 C 89 % 1014,6 hPa #3,8 l/m #46 min. #2:30 h 117 W/m 7,1 km/h (2 Bft) 97,09 %
© 2023 W. Hausmann